Wetterdaten: Donnerstag, 16.04.2015
Datum Zeit Temp. Aussen +5cm Feuchte Auss Luftdruck Regen Sonnenschein Regendauer Solar Windben
16.04.2015 00:00 14,2 C 12,2 C 76 % 1014,3 hPa 0,0 l/m 0 min 0 min 0 W/m 12,6 km/h (3 Bft)
16.04.2015 00:02 14,1 C 12,2 C 76 % 1014,3 hPa 0,0 l/m 0 min 0 min 0 W/m 12,6 km/h (3 Bft)
16.04.2015 00:06 13,9 C 11,7 C 76 % 1014,3 hPa 0,0 l/m 0 min 0 min 0 W/m 12,6 km/h (3 Bft)
16.04.2015 00:08 13,8 C 11,7 C 77 % 1014,3 hPa 0,0 l/m 0 min 0 min 0 W/m 10,5 km/h (2 Bft)
16.04.2015 00:10 13,8 C 11,7 C 77 % 1014,3 hPa 0,0 l/m 0 min 0 min 0 W/m 8,4 km/h (2 Bft)
16.04.2015 00:12 13,7 C 11,7 C 77 % 1014,3 hPa 0,0 l/m 0 min 0 min 0 W/m 8,4 km/h (2 Bft)
16.04.2015 00:14 13,7 C 11,7 C 77 % 1014,4 hPa 0,0 l/m 0 min 0 min 0 W/m 8,4 km/h (2 Bft)
16.04.2015 00:16 13,6 C 11,7 C 77 % 1014,4 hPa 0,0 l/m 0 min 0 min 0 W/m 10,5 km/h (2 Bft)
16.04.2015 00:18 13,5 C 11,1 C 78 % 1014,4 hPa 0,0 l/m 0 min 0 min 0 W/m 8,4 km/h (2 Bft)
16.04.2015 00:20 13,4 C 11,1 C 78 % 1014,4 hPa 0,0 l/m 0 min 0 min 0 W/m 10,5 km/h (2 Bft)
16.04.2015 00:22 13,3 C 11,1 C 78 % 1014,4 hPa 0,0 l/m 0 min 0 min 0 W/m 8,4 km/h (2 Bft)
16.04.2015 00:24 13,3 C 11,1 C 78 % 1014,4 hPa 0,0 l/m 0 min 0 min 0 W/m 10,5 km/h (2 Bft)
16.04.2015 00:26 13,2 C 11,1 C 78 % 1014,3 hPa 0,0 l/m 0 min 0 min 0 W/m 8,4 km/h (2 Bft)
16.04.2015 00:28 13,1 C 11,1 C 78 % 1014,4 hPa 0,0 l/m 0 min 0 min 0 W/m 8,4 km/h (2 Bft)
16.04.2015 00:30 13,1 C 11,1 C 78 % 1014,4 hPa 0,0 l/m 0 min 0 min 0 W/m 10,5 km/h (2 Bft)
16.04.2015 00:32 13,0 C 11,1 C 78 % 1014,4 hPa 0,0 l/m 0 min 0 min 0 W/m 10,5 km/h (2 Bft)
16.04.2015 00:34 12,9 C 11,1 C 78 % 1014,4 hPa 0,0 l/m 0 min 0 min 0 W/m 10,5 km/h (2 Bft)
16.04.2015 00:36 12,9 C 10,6 C 78 % 1014,4 hPa 0,0 l/m 0 min 0 min 0 W/m 8,4 km/h (2 Bft)
16.04.2015 00:38 12,8 C 10,6 C 78 % 1014,4 hPa 0,0 l/m 0 min 0 min 0 W/m 6,3 km/h (2 Bft)
16.04.2015 00:40 12,8 C 10,6 C 78 % 1014,4 hPa 0,0 l/m 0 min 0 min 0 W/m 6,3 km/h (2 Bft)
16.04.2015 00:42 12,7 C 10,6 C 78 % 1014,5 hPa 0,0 l/m 0 min 0 min 0 W/m 10,5 km/h (2 Bft)
16.04.2015 00:44 12,7 C 10,6 C 79 % 1014,6 hPa 0,0 l/m 0 min 0 min 0 W/m 8,4 km/h (2 Bft)
16.04.2015 00:46 12,6 C 10,6 C 79 % 1014,5 hPa 0,0 l/m 0 min 0 min 0 W/m 12,6 km/h (3 Bft)
16.04.2015 00:48 12,5 C 10,6 C 79 % 1014,5 hPa 0,0 l/m 0 min 0 min 0 W/m 12,6 km/h (3 Bft)
16.04.2015 00:50 12,4 C 10,6 C 78 % 1014,6 hPa 0,0 l/m 0 min 0 min 0 W/m 12,6 km/h (3 Bft)
16.04.2015 00:52 12,3 C 10,6 C 78 % 1014,6 hPa 0,0 l/m 0 min 0 min 0 W/m 16,7 km/h (3 Bft)
16.04.2015 00:54 12,3 C 10,6 C 77 % 1014,7 hPa 0,0 l/m 0 min 0 min 0 W/m 10,5 km/h (2 Bft)
16.04.2015 00:56 12,2 C 10,6 C 77 % 1014,7 hPa 0,0 l/m 0 min 0 min 0 W/m 8,4 km/h (2 Bft)
16.04.2015 00:58 12,2 C 10,6 C 77 % 1014,7 hPa 0,0 l/m 0 min 0 min 0 W/m 10,5 km/h (2 Bft)
16.04.2015 01:00 12,1 C 10,0 C 77 % 1014,7 hPa 0,0 l/m 0 min 0 min 0 W/m 10,5 km/h (2 Bft)
16.04.2015 01:02 12,1 C 10,0 C 77 % 1014,7 hPa 0,0 l/m 0 min 0 min 0 W/m 10,5 km/h (2 Bft)
16.04.2015 01:04 12,0 C 10,0 C 77 % 1014,7 hPa 0,0 l/m 0 min 0 min 0 W/m 10,5 km/h (2 Bft)
16.04.2015 01:06 12,0 C 10,0 C 77 % 1014,8 hPa 0,0 l/m 0 min 0 min 0 W/m 10,5 km/h (2 Bft)
16.04.2015 01:08 11,9 C 10,0 C 77 % 1014,8 hPa 0,0 l/m 0 min 0 min 0 W/m 8,4 km/h (2 Bft)
16.04.2015 01:10 11,9 C 10,0 C 77 % 1014,8 hPa 0,0 l/m 0 min 0 min 0 W/m 8,4 km/h (2 Bft)
16.04.2015 01:12 11,9 C 9,4 C 77 % 1014,7 hPa 0,0 l/m 0 min 0 min 0 W/m 10,5 km/h (2 Bft)
16.04.2015 01:14 11,8 C 9,4 C 77 % 1014,8 hPa 0,0 l/m 0 min 0 min 0 W/m 10,5 km/h (2 Bft)
16.04.2015 01:16 11,8 C 10,0 C 77 % 1014,8 hPa 0,0 l/m 0 min 0 min 0 W/m 8,4 km/h (2 Bft)
16.04.2015 01:18 11,7 C 9,4 C 77 % 1014,8 hPa 0,0 l/m 0 min 0 min 0 W/m 4,2 km/h (1 Bft)
16.04.2015 01:20 11,7 C 9,4 C 77 % 1014,7 hPa 0,0 l/m 0 min 0 min 0 W/m 4,2 km/h (1 Bft)
16.04.2015 01:22 11,7 C 9,4 C 77 % 1014,7 hPa 0,0 l/m 0 min 0 min 0 W/m 6,3 km/h (2 Bft)
16.04.2015 01:24 11,6 C 9,4 C 77 % 1014,8 hPa 0,0 l/m 0 min 0 min 0 W/m 6,3 km/h (2 Bft)
16.04.2015 01:26 11,6 C 9,4 C 77 % 1014,7 hPa 0,0 l/m 0 min 0 min 0 W/m 8,4 km/h (2 Bft)
16.04.2015 01:28 11,6 C 8,9 C 77 % 1014,7 hPa 0,0 l/m 0 min 0 min 0 W/m 6,3 km/h (2 Bft)
16.04.2015 01:30 11,5 C 8,9 C 77 % 1014,7 hPa 0,0 l/m 0 min 0 min 0 W/m 8,4 km/h (2 Bft)
16.04.2015 01:32 11,4 C 8,9 C 77 % 1014,7 hPa 0,0 l/m 0 min 0 min 0 W/m 8,4 km/h (2 Bft)
16.04.2015 01:34 11,4 C 8,9 C 78 % 1014,7 hPa 0,0 l/m 0 min 0 min 0 W/m 8,4 km/h (2 Bft)
16.04.2015 01:36 11,3 C 8,9 C 78 % 1014,6 hPa 0,0 l/m 0 min 0 min 0 W/m 8,4 km/h (2 Bft)
16.04.2015 01:38 11,3 C 8,9 C 78 % 1014,6 hPa 0,0 l/m 0 min 0 min 0 W/m 6,3 km/h (2 Bft)
16.04.2015 01:40 11,2 C 8,9 C 78 % 1014,5 hPa 0,0 l/m 0 min 0 min 0 W/m 8,4 km/h (2 Bft)
16.04.2015 01:42 11,2 C 8,9 C 78 % 1014,5 hPa 0,0 l/m 0 min 0 min 0 W/m 6,3 km/h (2 Bft)
16.04.2015 01:44 11,1 C 8,9 C 78 % 1014,5 hPa 0,0 l/m 0 min 0 min 0 W/m 6,3 km/h (2 Bft)
16.04.2015 01:46 11,1 C 8,9 C 78 % 1014,5 hPa 0,0 l/m 0 min 0 min 0 W/m 6,3 km/h (2 Bft)
16.04.2015 01:48 11,0 C 8,9 C 79 % 1014,5 hPa 0,0 l/m 0 min 0 min 0 W/m 8,4 km/h (2 Bft)
16.04.2015 01:50 11,0 C 8,3 C 78 % 1014,5 hPa 0,0 l/m 0 min 0 min 0 W/m 6,3 km/h (2 Bft)
16.04.2015 01:52 10,9 C 8,3 C 79 % 1014,5 hPa 0,0 l/m 0 min 0 min 0 W/m 6,3 km/h (2 Bft)
16.04.2015 01:54 10,9 C 8,3 C 79 % 1014,5 hPa 0,0 l/m 0 min 0 min 0 W/m 6,3 km/h (2 Bft)
16.04.2015 01:56 10,8 C 8,3 C 79 % 1014,4 hPa 0,0 l/m 0 min 0 min 0 W/m 6,3 km/h (2 Bft)
16.04.2015 01:58 10,8 C 8,3 C 79 % 1014,5 hPa 0,0 l/m 0 min 0 min 0 W/m 4,2 km/h (1 Bft)
16.04.2015 02:00 10,7 C 8,3 C 79 % 1014,4 hPa 0,0 l/m 0 min 0 min 0 W/m 8,4 km/h (2 Bft)
16.04.2015 02:02 10,7 C 7,8 C 79 % 1014,5 hPa 0,0 l/m 0 min 0 min 0 W/m 8,4 km/h (2 Bft)
16.04.2015 02:04 10,7 C 7,8 C 79 % 1014,5 hPa 0,0 l/m 0 min 0 min 0 W/m 8,4 km/h (2 Bft)
16.04.2015 02:06 10,6 C 7,8 C 79 % 1014,6 hPa 0,0 l/m 0 min 0 min 0 W/m 6,3 km/h (2 Bft)
16.04.2015 02:08 10,6 C 7,8 C 79 % 1014,7 hPa 0,0 l/m 0 min 0 min 0 W/m 8,4 km/h (2 Bft)
16.04.2015 02:10 10,5 C 8,3 C 79 % 1014,7 hPa 0,0 l/m 0 min 0 min 0 W/m 12,6 km/h (3 Bft)
16.04.2015 02:12 10,4 C 8,3 C 80 % 1014,8 hPa 0,0 l/m 0 min 0 min 0 W/m 14,6 km/h (3 Bft)
16.04.2015 02:14 10,4 C 8,3 C 80 % 1014,7 hPa 0,0 l/m 0 min 0 min 0 W/m 10,5 km/h (2 Bft)
16.04.2015 02:16 10,3 C 8,3 C 80 % 1014,7 hPa 0,0 l/m 0 min 0 min 0 W/m 12,6 km/h (3 Bft)
16.04.2015 02:18 10,2 C 8,3 C 80 % 1014,7 hPa 0,0 l/m 0 min 0 min 0 W/m 10,5 km/h (2 Bft)
16.04.2015 02:20 10,2 C 8,3 C 80 % 1014,7 hPa 0,0 l/m 0 min 0 min 0 W/m 12,6 km/h (3 Bft)
16.04.2015 02:22 10,1 C 8,3 C 81 % 1014,7 hPa 0,0 l/m 0 min 0 min 0 W/m 10,5 km/h (2 Bft)
16.04.2015 02:24 10,1 C 8,3 C 81 % 1014,7 hPa 0,0 l/m 0 min 0 min 0 W/m 12,6 km/h (3 Bft)
16.04.2015 02:26 10,0 C 8,3 C 81 % 1014,7 hPa 0,0 l/m 0 min 0 min 0 W/m 12,6 km/h (3 Bft)
16.04.2015 02:28 10,0 C 8,3 C 81 % 1014,8 hPa 0,0 l/m 0 min 0 min 0 W/m 10,5 km/h (2 Bft)
16.04.2015 02:30 9,9 C 8,3 C 81 % 1014,7 hPa 0,0 l/m 0 min 0 min 0 W/m 12,6 km/h (3 Bft)
16.04.2015 02:32 9,9 C 8,3 C 82 % 1014,6 hPa 0,0 l/m 0 min 0 min 0 W/m 8,4 km/h (2 Bft)
16.04.2015 02:34 9,8 C 8,3 C 82 % 1014,6 hPa 0,0 l/m 0 min 0 min 0 W/m 12,6 km/h (3 Bft)
16.04.2015 02:36 9,8 C 8,3 C 82 % 1014,6 hPa 0,0 l/m 0 min 0 min 0 W/m 12,6 km/h (3 Bft)
16.04.2015 02:38 9,8 C 8,3 C 82 % 1014,6 hPa 0,0 l/m 0 min 0 min 0 W/m 12,6 km/h (3 Bft)
16.04.2015 02:40 9,7 C 8,3 C 82 % 1014,6 hPa 0,0 l/m 0 min 0 min 0 W/m 10,5 km/h (2 Bft)
16.04.2015 02:42 9,7 C 7,8 C 82 % 1014,6 hPa 0,0 l/m 0 min 0 min 0 W/m 12,6 km/h (3 Bft)
16.04.2015 02:44 9,7 C 7,8 C 83 % 1014,5 hPa 0,0 l/m 0 min 0 min 0 W/m 10,5 km/h (2 Bft)
16.04.2015 02:46 9,6 C 7,8 C 83 % 1014,5 hPa 0,0 l/m 0 min 0 min 0 W/m 10,5 km/h (2 Bft)
16.04.2015 02:48 9,6 C 7,8 C 83 % 1014,4 hPa 0,0 l/m 0 min 0 min 0 W/m 10,5 km/h (2 Bft)
16.04.2015 02:50 9,6 C 7,8 C 83 % 1014,2 hPa 0,0 l/m 0 min 0 min 0 W/m 10,5 km/h (2 Bft)
16.04.2015 02:52 9,5 C 7,8 C 83 % 1014,2 hPa 0,0 l/m 0 min 0 min 0 W/m 8,4 km/h (2 Bft)
16.04.2015 02:54 9,5 C 7,8 C 83 % 1014,2 hPa 0,0 l/m 0 min 0 min 0 W/m 8,4 km/h (2 Bft)
16.04.2015 02:56 9,4 C 7,8 C 84 % 1014,3 hPa 0,0 l/m 0 min 0 min 0 W/m 12,6 km/h (3 Bft)
16.04.2015 02:58 9,3 C 7,8 C 84 % 1014,3 hPa 0,0 l/m 0 min 0 min 0 W/m 10,5 km/h (2 Bft)
16.04.2015 03:00 9,3 C 7,8 C 84 % 1014,3 hPa 0,0 l/m 0 min 0 min 0 W/m 10,5 km/h (2 Bft)
16.04.2015 03:02 9,2 C 7,8 C 85 % 1014,3 hPa 0,0 l/m 0 min 0 min 0 W/m 10,5 km/h (2 Bft)
16.04.2015 03:04 9,1 C 7,8 C 85 % 1014,3 hPa 0,0 l/m 0 min 0 min 0 W/m 12,6 km/h (3 Bft)
16.04.2015 03:06 9,1 C 7,8 C 85 % 1014,4 hPa 0,0 l/m 0 min 0 min 0 W/m 10,5 km/h (2 Bft)
16.04.2015 03:08 9,0 C 7,8 C 85 % 1014,3 hPa 0,0 l/m 0 min 0 min 0 W/m 8,4 km/h (2 Bft)
16.04.2015 03:10 8,9 C 7,8 C 86 % 1014,4 hPa 0,0 l/m 0 min 0 min 0 W/m 10,5 km/h (2 Bft)
16.04.2015 03:12 8,9 C 7,8 C 86 % 1014,5 hPa 0,0 l/m 0 min 0 min 0 W/m 10,5 km/h (2 Bft)
16.04.2015 03:14 8,8 C 7,8 C 86 % 1014,3 hPa 0,0 l/m 0 min 0 min 0 W/m 12,6 km/h (3 Bft)
16.04.2015 03:16 8,7 C 7,2 C 87 % 1014,4 hPa 0,0 l/m 0 min 0 min 0 W/m 10,5 km/h (2 Bft)
16.04.2015 03:18 8,7 C 7,8 C 87 % 1014,5 hPa 0,0 l/m 0 min 0 min 0 W/m 12,6 km/h (3 Bft)
16.04.2015 03:20 8,7 C 7,2 C 87 % 1014,4 hPa 0,0 l/m 0 min 0 min 0 W/m 10,5 km/h (2 Bft)
16.04.2015 03:22 8,7 C 7,2 C 87 % 1014,4 hPa 0,0 l/m 0 min 0 min 0 W/m 10,5 km/h (2 Bft)
16.04.2015 03:24 8,7 C 7,2 C 87 % 1014,5 hPa 0,0 l/m 0 min 0 min 0 W/m 10,5 km/h (2 Bft)
16.04.2015 03:26 8,6 C 7,2 C 87 % 1014,4 hPa 0,0 l/m 0 min 0 min 0 W/m 12,6 km/h (3 Bft)
16.04.2015 03:28 8,6 C 7,2 C 88 % 1014,4 hPa 0,0 l/m 0 min 0 min 0 W/m 12,6 km/h (3 Bft)
16.04.2015 03:30 8,6 C 7,2 C 88 % 1014,3 hPa 0,0 l/m 0 min 0 min 0 W/m 12,6 km/h (3 Bft)
16.04.2015 03:32 8,6 C 7,2 C 88 % 1014,4 hPa 0,0 l/m 0 min 0 min 0 W/m 8,4 km/h (2 Bft)
16.04.2015 03:34 8,6 C 7,2 C 88 % 1014,5 hPa 0,0 l/m 0 min 0 min 0 W/m 10,5 km/h (2 Bft)
16.04.2015 03:36 8,5 C 7,2 C 88 % 1014,6 hPa 0,0 l/m 0 min 0 min 0 W/m 8,4 km/h (2 Bft)
16.04.2015 03:38 8,4 C 7,2 C 88 % 1014,6 hPa 0,0 l/m 0 min 0 min 0 W/m 6,3 km/h (2 Bft)
16.04.2015 03:40 8,4 C 7,2 C 88 % 1014,4 hPa 0,0 l/m 0 min 0 min 0 W/m 8,4 km/h (2 Bft)
16.04.2015 03:42 8,4 C 7,2 C 88 % 1014,5 hPa 0,0 l/m 0 min 0 min 0 W/m 10,5 km/h (2 Bft)
16.04.2015 03:44 8,4 C 7,2 C 88 % 1014,5 hPa 0,0 l/m 0 min 0 min 0 W/m 6,3 km/h (2 Bft)
16.04.2015 03:46 8,3 C 7,2 C 88 % 1014,4 hPa 0,0 l/m 0 min 0 min 0 W/m 8,4 km/h (2 Bft)
16.04.2015 03:48 8,3 C 7,2 C 88 % 1014,3 hPa 0,0 l/m 0 min 0 min 0 W/m 8,4 km/h (2 Bft)
16.04.2015 03:50 8,3 C 7,2 C 89 % 1014,5 hPa 0,0 l/m 0 min 0 min 0 W/m 10,5 km/h (2 Bft)
16.04.2015 03:52 8,3 C 7,2 C 88 % 1014,5 hPa 0,0 l/m 0 min 0 min 0 W/m 12,6 km/h (3 Bft)
16.04.2015 03:54 8,3 C 7,2 C 88 % 1014,5 hPa 0,0 l/m 0 min 0 min 0 W/m 10,5 km/h (2 Bft)
16.04.2015 03:56 8,2 C 7,2 C 88 % 1014,5 hPa 0,0 l/m 0 min 0 min 0 W/m 10,5 km/h (2 Bft)
16.04.2015 03:58 8,2 C 7,2 C 89 % 1014,4 hPa 0,0 l/m 0 min 0 min 0 W/m 10,5 km/h (2 Bft)
16.04.2015 04:00 8,2 C 7,2 C 89 % 1014,4 hPa 0,0 l/m 0 min 0 min 0 W/m 10,5 km/h (2 Bft)
16.04.2015 04:06 8,1 C 6,7 C 89 % 1014,3 hPa 0,0 l/m 0 min 0 min 0 W/m 12,6 km/h (3 Bft)
16.04.2015 04:08 8,1 C 6,7 C 89 % 1014,3 hPa 0,0 l/m 0 min 0 min 0 W/m 12,6 km/h (3 Bft)
16.04.2015 04:10 8,1 C 6,7 C 89 % 1014,3 hPa 0,0 l/m 0 min 0 min 0 W/m 10,5 km/h (2 Bft)
16.04.2015 04:12 8,0 C 6,7 C 89 % 1014,4 hPa 0,0 l/m 0 min 0 min 0 W/m 8,4 km/h (2 Bft)
16.04.2015 04:14 8,0 C 6,7 C 89 % 1014,3 hPa 0,0 l/m 0 min 0 min 0 W/m 10,5 km/h (2 Bft)
16.04.2015 04:16 7,9 C 6,7 C 90 % 1014,3 hPa 0,0 l/m 0 min 0 min 0 W/m 8,4 km/h (2 Bft)
16.04.2015 04:18 7,9 C 6,7 C 90 % 1014,3 hPa 0,0 l/m 0 min 0 min 0 W/m 6,3 km/h (2 Bft)
16.04.2015 04:20 7,9 C 6,7 C 90 % 1014,3 hPa 0,0 l/m 0 min 0 min 0 W/m 4,2 km/h (1 Bft)
16.04.2015 04:22 7,9 C 6,7 C 90 % 1014,4 hPa 0,0 l/m 0 min 0 min 0 W/m 4,2 km/h (1 Bft)
16.04.2015 04:24 7,9 C 6,7 C 90 % 1014,5 hPa 0,0 l/m 0 min 0 min 0 W/m 8,4 km/h (2 Bft)
16.04.2015 04:26 7,9 C 6,7 C 90 % 1014,5 hPa 0,0 l/m 0 min 0 min 0 W/m 10,5 km/h (2 Bft)
16.04.2015 04:28 7,9 C 6,7 C 90 % 1014,4 hPa 0,0 l/m 0 min 0 min 0 W/m 8,4 km/h (2 Bft)
16.04.2015 04:30 7,8 C 6,7 C 90 % 1014,4 hPa 0,0 l/m 0 min 0 min 0 W/m 8,4 km/h (2 Bft)
16.04.2015 04:32 7,8 C 6,7 C 90 % 1014,4 hPa 0,0 l/m 0 min 0 min 0 W/m 8,4 km/h (2 Bft)
16.04.2015 04:34 7,8 C 6,7 C 90 % 1014,4 hPa 0,0 l/m 0 min 0 min 0 W/m 10,5 km/h (2 Bft)
16.04.2015 04:36 7,8 C 6,7 C 91 % 1014,4 hPa 0,0 l/m 0 min 0 min 0 W/m 10,5 km/h (2 Bft)
16.04.2015 04:38 7,8 C 6,7 C 91 % 1014,4 hPa 0,0 l/m 0 min 0 min 0 W/m 10,5 km/h (2 Bft)
16.04.2015 04:40 7,7 C 6,7 C 91 % 1014,5 hPa 0,0 l/m 0 min 0 min 0 W/m 8,4 km/h (2 Bft)
16.04.2015 04:42 7,7 C 6,7 C 91 % 1014,5 hPa 0,0 l/m 0 min 0 min 0 W/m 10,5 km/h (2 Bft)
16.04.2015 04:44 7,7 C 6,7 C 91 % 1014,4 hPa 0,0 l/m 0 min 0 min 0 W/m 6,3 km/h (2 Bft)
16.04.2015 04:46 7,7 C 6,7 C 91 % 1014,5 hPa 0,0 l/m 0 min 0 min 0 W/m 6,3 km/h (2 Bft)
16.04.2015 04:48 7,7 C 6,7 C 91 % 1014,5 hPa 0,0 l/m 0 min 0 min 0 W/m 8,4 km/h (2 Bft)
16.04.2015 04:50 7,7 C 6,7 C 91 % 1014,6 hPa 0,0 l/m 0 min 0 min 0 W/m 10,5 km/h (2 Bft)
16.04.2015 04:52 7,7 C 6,7 C 91 % 1014,6 hPa 0,0 l/m 0 min 0 min 0 W/m 8,4 km/h (2 Bft)
16.04.2015 04:54 7,6 C 6,7 C 91 % 1014,6 hPa 0,0 l/m 0 min 0 min 0 W/m 10,5 km/h (2 Bft)
16.04.2015 04:56 7,6 C 6,7 C 91 % 1014,7 hPa 0,0 l/m 0 min 0 min 0 W/m 10,5 km/h (2 Bft)
16.04.2015 04:58 7,6 C 6,7 C 91 % 1014,7 hPa 0,0 l/m 0 min 0 min 0 W/m 8,4 km/h (2 Bft)
16.04.2015 05:00 7,6 C 6,7 C 91 % 1014,7 hPa 0,0 l/m 0 min 0 min 0 W/m 8,4 km/h (2 Bft)
16.04.2015 05:02 7,6 C 6,1 C 91 % 1014,7 hPa 0,0 l/m 0 min 0 min 0 W/m 8,4 km/h (2 Bft)
16.04.2015 05:04 7,5 C 6,1 C 91 % 1014,9 hPa 0,0 l/m 0 min 0 min 0 W/m 4,2 km/h (1 Bft)
16.04.2015 05:06 7,4 C 6,1 C 92 % 1014,9 hPa 0,0 l/m 0 min 0 min 0 W/m 6,3 km/h (2 Bft)
16.04.2015 05:08 7,4 C 6,1 C 91 % 1014,9 hPa 0,0 l/m 0 min 0 min 0 W/m 4,2 km/h (1 Bft)
16.04.2015 05:10 7,4 C 6,1 C 92 % 1014,9 hPa 0,0 l/m 0 min 0 min 0 W/m 6,3 km/h (2 Bft)
16.04.2015 05:12 7,4 C 6,1 C 92 % 1014,9 hPa 0,0 l/m 0 min 0 min 0 W/m 6,3 km/h (2 Bft)
16.04.2015 05:14 7,4 C 6,1 C 92 % 1014,9 hPa 0,0 l/m 0 min 0 min 0 W/m 8,4 km/h (2 Bft)
16.04.2015 05:16 7,4 C 6,1 C 92 % 1014,8 hPa 0,0 l/m 0 min 0 min 0 W/m 8,4 km/h (2 Bft)
16.04.2015 05:18 7,4 C 6,1 C 92 % 1014,8 hPa 0,0 l/m 0 min 0 min 0 W/m 8,4 km/h (2 Bft)
16.04.2015 05:20 7,4 C 6,1 C 92 % 1014,8 hPa 0,0 l/m 0 min 0 min 0 W/m 10,5 km/h (2 Bft)
16.04.2015 05:22 7,4 C 6,1 C 92 % 1014,7 hPa 0,0 l/m 0 min 0 min 0 W/m 8,4 km/h (2 Bft)
16.04.2015 05:24 7,3 C 6,1 C 92 % 1014,7 hPa 0,0 l/m 0 min 0 min 0 W/m 10,5 km/h (2 Bft)
16.04.2015 05:26 7,3 C 6,1 C 92 % 1014,6 hPa 0,0 l/m 0 min 0 min 0 W/m 8,4 km/h (2 Bft)
16.04.2015 05:28 7,3 C 6,1 C 92 % 1014,6 hPa 0,0 l/m 0 min 0 min 0 W/m 10,5 km/h (2 Bft)
16.04.2015 05:30 7,3 C 6,1 C 92 % 1014,6 hPa 0,0 l/m 0 min 0 min 0 W/m 8,4 km/h (2 Bft)
16.04.2015 05:32 7,3 C 6,1 C 92 % 1014,6 hPa 0,0 l/m 0 min 0 min 0 W/m 8,4 km/h (2 Bft)
16.04.2015 05:34 7,3 C 6,1 C 92 % 1014,7 hPa 0,0 l/m 0 min 0 min 0 W/m 6,3 km/h (2 Bft)
16.04.2015 05:36 7,3 C 6,1 C 92 % 1014,8 hPa 0,0 l/m 0 min 0 min 0 W/m 6,3 km/h (2 Bft)
16.04.2015 05:38 7,2 C 6,1 C 92 % 1014,8 hPa 0,0 l/m 0 min 0 min 0 W/m 8,4 km/h (2 Bft)
16.04.2015 05:40 7,3 C 6,1 C 92 % 1014,7 hPa 0,0 l/m 0 min 0 min 0 W/m 8,4 km/h (2 Bft)
16.04.2015 05:42 7,3 C 6,1 C 93 % 1014,8 hPa 0,0 l/m 0 min 0 min 0 W/m 8,4 km/h (2 Bft)
16.04.2015 05:44 7,2 C 6,1 C 93 % 1014,8 hPa 0,0 l/m 0 min 0 min 0 W/m 10,5 km/h (2 Bft)
16.04.2015 05:46 7,2 C 6,1 C 93 % 1014,9 hPa 0,0 l/m 0 min 0 min 0 W/m 10,5 km/h (2 Bft)
16.04.2015 05:48 7,2 C 6,1 C 93 % 1014,8 hPa 0,0 l/m 0 min 0 min 0 W/m 14,6 km/h (3 Bft)
16.04.2015 05:50 7,3 C 6,1 C 93 % 1014,8 hPa 0,0 l/m 0 min 0 min 0 W/m 14,6 km/h (3 Bft)
16.04.2015 05:52 7,2 C 6,1 C 93 % 1014,9 hPa 0,0 l/m 0 min 0 min 0 W/m 12,6 km/h (3 Bft)
16.04.2015 05:54 7,2 C 6,1 C 93 % 1014,8 hPa 0,0 l/m 0 min 0 min 0 W/m 14,6 km/h (3 Bft)
16.04.2015 05:56 7,2 C 6,1 C 93 % 1014,9 hPa 0,0 l/m 0 min 0 min 0 W/m 10,5 km/h (2 Bft)
16.04.2015 05:58 7,2 C 6,1 C 93 % 1014,9 hPa 0,0 l/m 0 min 0 min 0 W/m 8,4 km/h (2 Bft)
16.04.2015 06:00 7,2 C 6,1 C 93 % 1014,9 hPa 0,0 l/m 0 min 0 min 0 W/m 8,4 km/h (2 Bft)
16.04.2015 06:02 7,2 C 6,1 C 93 % 1014,9 hPa 0,0 l/m 0 min 0 min 0 W/m 10,5 km/h (2 Bft)
16.04.2015 06:06 7,2 C 6,1 C 93 % 1014,9 hPa 0,0 l/m 0 min 0 min 0 W/m 8,4 km/h (2 Bft)
16.04.2015 06:08 7,1 C 6,1 C 93 % 1014,9 hPa 0,0 l/m 0 min 0 min 0 W/m 10,5 km/h (2 Bft)
16.04.2015 06:10 7,1 C 6,1 C 93 % 1015,0 hPa 0,0 l/m 0 min 0 min 0 W/m 8,4 km/h (2 Bft)
16.04.2015 06:12 7,1 C 6,1 C 93 % 1014,9 hPa 0,0 l/m 0 min 0 min 0 W/m 8,4 km/h (2 Bft)
16.04.2015 06:14 7,1 C 6,1 C 93 % 1015,0 hPa 0,0 l/m 0 min 0 min 0 W/m 10,5 km/h (2 Bft)
16.04.2015 06:16 7,1 C 6,1 C 93 % 1014,9 hPa 0,0 l/m 0 min 0 min 0 W/m 8,4 km/h (2 Bft)
16.04.2015 06:18 7,1 C 5,6 C 93 % 1014,9 hPa 0,0 l/m 0 min 0 min 0 W/m 8,4 km/h (2 Bft)
16.04.2015 06:20 7,0 C 6,1 C 93 % 1014,9 hPa 0,0 l/m 0 min 0 min 0 W/m 8,4 km/h (2 Bft)
16.04.2015 06:22 7,0 C 5,6 C 93 % 1014,9 hPa 0,0 l/m 0 min 0 min 0 W/m 10,5 km/h (2 Bft)
16.04.2015 06:24 7,0 C 5,6 C 93 % 1014,9 hPa 0,0 l/m 0 min 0 min 0 W/m 8,4 km/h (2 Bft)
16.04.2015 06:26 6,9 C 5,6 C 93 % 1015,0 hPa 0,0 l/m 0 min 0 min 0 W/m 6,3 km/h (2 Bft)
16.04.2015 06:28 6,9 C 5,6 C 93 % 1015,0 hPa 0,0 l/m 0 min 0 min 0 W/m 6,3 km/h (2 Bft)
16.04.2015 06:30 6,9 C 5,6 C 94 % 1015,0 hPa 0,0 l/m 0 min 0 min 0 W/m 6,3 km/h (2 Bft)
16.04.2015 06:32 6,9 C 5,6 C 94 % 1015,0 hPa 0,0 l/m 0 min 0 min 0 W/m 8,4 km/h (2 Bft)
16.04.2015 06:34 6,9 C 5,6 C 94 % 1015,0 hPa 0,0 l/m 0 min 0 min 0 W/m 8,4 km/h (2 Bft)
16.04.2015 06:36 6,9 C 5,6 C 94 % 1015,0 hPa 0,0 l/m 0 min 0 min 2 W/m 6,3 km/h (2 Bft)
16.04.2015 06:38 6,9 C 5,6 C 94 % 1015,0 hPa 0,0 l/m 0 min 0 min 5 W/m 6,3 km/h (2 Bft)
16.04.2015 06:40 6,9 C 5,6 C 94 % 1015,0 hPa 0,0 l/m 0 min 0 min 5 W/m 8,4 km/h (2 Bft)
16.04.2015 06:42 6,8 C 5,6 C 94 % 1015,0 hPa 0,0 l/m 0 min 0 min 5 W/m 6,3 km/h (2 Bft)
16.04.2015 06:44 6,8 C 5,6 C 94 % 1015,1 hPa 0,0 l/m 0 min 0 min 7 W/m 6,3 km/h (2 Bft)
16.04.2015 06:46 6,8 C 5,6 C 94 % 1015,1 hPa 0,0 l/m 0 min 0 min 7 W/m 6,3 km/h (2 Bft)
16.04.2015 06:48 6,8 C 5,6 C 94 % 1015,1 hPa 0,0 l/m 0 min 0 min 7 W/m 6,3 km/h (2 Bft)
16.04.2015 06:50 6,8 C 5,6 C 94 % 1015,2 hPa 0,0 l/m 0 min 0 min 7 W/m 6,3 km/h (2 Bft)
16.04.2015 06:52 6,8 C 5,6 C 94 % 1015,3 hPa 0,0 l/m 0 min 0 min 9 W/m 6,3 km/h (2 Bft)
16.04.2015 06:54 6,7 C 5,6 C 94 % 1015,3 hPa 0,0 l/m 0 min 0 min 10 W/m 6,3 km/h (2 Bft)
16.04.2015 06:56 6,7 C 5,6 C 94 % 1015,4 hPa 0,0 l/m 0 min 0 min 11 W/m 6,3 km/h (2 Bft)
16.04.2015 06:58 6,7 C 5,6 C 94 % 1015,4 hPa 0,0 l/m 0 min 0 min 12 W/m 6,3 km/h (2 Bft)
16.04.2015 07:00 6,7 C 5,6 C 94 % 1015,4 hPa 0,0 l/m 0 min 0 min 13 W/m 8,4 km/h (2 Bft)
16.04.2015 07:02 6,7 C 5,6 C 94 % 1015,4 hPa 0,0 l/m 0 min 0 min 15 W/m 6,3 km/h (2 Bft)
16.04.2015 07:04 6,7 C 5,6 C 94 % 1015,4 hPa 0,0 l/m 0 min 0 min 18 W/m 6,3 km/h (2 Bft)
16.04.2015 07:06 6,7 C 5,6 C 94 % 1015,4 hPa 0,0 l/m 0 min 0 min 19 W/m 8,4 km/h (2 Bft)
16.04.2015 07:08 6,7 C 5,6 C 94 % 1015,4 hPa 0,0 l/m 0 min 0 min 23 W/m 10,5 km/h (2 Bft)
16.04.2015 07:10 6,7 C 5,6 C 94 % 1015,4 hPa 0,0 l/m 0 min 0 min 26 W/m 14,6 km/h (3 Bft)
16.04.2015 07:12 6,7 C 5,6 C 94 % 1015,4 hPa 0,0 l/m 0 min 0 min 29 W/m 14,6 km/h (3 Bft)
16.04.2015 07:14 6,7 C 5,6 C 94 % 1015,3 hPa 0,0 l/m 0 min 0 min 34 W/m 10,5 km/h (2 Bft)
16.04.2015 07:16 6,7 C 5,6 C 94 % 1015,3 hPa 0,0 l/m 0 min 0 min 39 W/m 10,5 km/h (2 Bft)
16.04.2015 07:18 6,7 C 5,6 C 94 % 1015,2 hPa 0,0 l/m 0 min 0 min 42 W/m 12,6 km/h (3 Bft)
16.04.2015 07:20 6,7 C 5,6 C 95 % 1015,3 hPa 0,0 l/m 0 min 0 min 46 W/m 10,5 km/h (2 Bft)
16.04.2015 07:22 6,7 C 5,6 C 95 % 1015,3 hPa 0,0 l/m 0 min 0 min 50 W/m 12,6 km/h (3 Bft)
16.04.2015 07:24 6,7 C 5,6 C 95 % 1015,2 hPa 0,0 l/m 2 min 0 min 54 W/m 12,6 km/h (3 Bft)
16.04.2015 07:26 6,7 C 5,6 C 94 % 1015,2 hPa 0,0 l/m 2 min 0 min 57 W/m 14,6 km/h (3 Bft)
16.04.2015 07:28 6,7 C 6,1 C 95 % 1015,2 hPa 0,0 l/m 2 min 0 min 62 W/m 10,5 km/h (2 Bft)
16.04.2015 07:30 6,7 C 6,1 C 95 % 1015,3 hPa 0,0 l/m 2 min 0 min 66 W/m 10,5 km/h (2 Bft)
16.04.2015 07:32 6,8 C 6,1 C 95 % 1015,4 hPa 0,0 l/m 2 min 0 min 70 W/m 8,4 km/h (2 Bft)
16.04.2015 07:34 6,8 C 6,1 C 95 % 1015,3 hPa 0,0 l/m 2 min 0 min 73 W/m 8,4 km/h (2 Bft)
16.04.2015 07:36 6,8 C 6,1 C 95 % 1015,4 hPa 0,0 l/m 2 min 0 min 77 W/m 12,6 km/h (3 Bft)
16.04.2015 07:38 6,8 C 6,1 C 95 % 1015,4 hPa 0,0 l/m 2 min 0 min 79 W/m 10,5 km/h (2 Bft)
16.04.2015 07:40 6,8 C 6,1 C 95 % 1015,4 hPa 0,0 l/m 2 min 0 min 85 W/m 12,6 km/h (3 Bft)
16.04.2015 07:42 6,9 C 6,1 C 95 % 1015,4 hPa 0,0 l/m 2 min 0 min 91 W/m 12,6 km/h (3 Bft)
16.04.2015 07:44 6,9 C 6,1 C 95 % 1015,4 hPa 0,0 l/m 2 min 0 min 96 W/m 8,4 km/h (2 Bft)
16.04.2015 07:46 6,9 C 6,1 C 95 % 1015,4 hPa 0,0 l/m 2 min 0 min 98 W/m 4,2 km/h (1 Bft)
16.04.2015 07:48 6,9 C 6,1 C 95 % 1015,5 hPa 0,0 l/m 2 min 0 min 102 W/m 6,3 km/h (2 Bft)
16.04.2015 07:50 6,9 C 6,1 C 95 % 1015,6 hPa 0,0 l/m 2 min 0 min 111 W/m 4,2 km/h (1 Bft)
16.04.2015 07:52 6,9 C 6,1 C 95 % 1015,6 hPa 0,0 l/m 2 min 0 min 113 W/m 6,3 km/h (2 Bft)
16.04.2015 07:54 7,0 C 6,1 C 95 % 1015,7 hPa 0,0 l/m 2 min 0 min 123 W/m 6,3 km/h (2 Bft)
16.04.2015 07:56 7,0 C 6,7 C 95 % 1015,7 hPa 0,0 l/m 2 min 0 min 126 W/m 4,2 km/h (1 Bft)
16.04.2015 07:58 7,1 C 6,7 C 95 % 1015,7 hPa 0,0 l/m 2 min 0 min 130 W/m 8,4 km/h (2 Bft)
16.04.2015 08:00 7,1 C 6,7 C 95 % 1015,7 hPa 0,0 l/m 2 min 0 min 134 W/m 8,4 km/h (2 Bft)
16.04.2015 08:02 7,1 C 6,7 C 95 % 1015,7 hPa 0,0 l/m 2 min 0 min 129 W/m 6,3 km/h (2 Bft)
16.04.2015 08:04 7,2 C 6,7 C 95 % 1015,7 hPa 0,0 l/m 2 min 0 min 123 W/m 10,5 km/h (2 Bft)
16.04.2015 08:06 7,2 C 6,7 C 95 % 1015,7 hPa 0,0 l/m 2 min 0 min 134 W/m 12,6 km/h (3 Bft)
16.04.2015 08:08 7,2 C 6,7 C 95 % 1015,6 hPa 0,0 l/m 2 min 0 min 146 W/m 12,6 km/h (3 Bft)
16.04.2015 08:10 7,3 C 6,7 C 95 % 1015,5 hPa 0,0 l/m 2 min 0 min 143 W/m 12,6 km/h (3 Bft)
16.04.2015 08:12 7,3 C 6,7 C 95 % 1015,6 hPa 0,0 l/m 2 min 0 min 123 W/m 12,6 km/h (3 Bft)
16.04.2015 08:14 7,4 C 7,2 C 95 % 1015,6 hPa 0,0 l/m 0 min 0 min 107 W/m 14,6 km/h (3 Bft)
16.04.2015 08:16 7,4 C 7,2 C 95 % 1015,6 hPa 0,0 l/m 0 min 0 min 106 W/m 14,6 km/h (3 Bft)
16.04.2015 08:18 7,4 C 7,2 C 95 % 1015,6 hPa 0,0 l/m 0 min 0 min 101 W/m 16,7 km/h (3 Bft)
16.04.2015 08:20 7,4 C 7,2 C 95 % 1015,7 hPa 0,0 l/m 0 min 0 min 103 W/m 14,6 km/h (3 Bft)
16.04.2015 08:22 7,4 C 7,2 C 95 % 1015,7 hPa 0,0 l/m 0 min 0 min 103 W/m 14,6 km/h (3 Bft)
16.04.2015 08:24 7,4 C 7,2 C 95 % 1015,7 hPa 0,0 l/m 0 min 0 min 104 W/m 12,6 km/h (3 Bft)
16.04.2015 08:26 7,5 C 7,2 C 95 % 1015,7 hPa 0,0 l/m 0 min 0 min 101 W/m 16,7 km/h (3 Bft)
16.04.2015 08:28 7,5 C 7,2 C 95 % 1015,7 hPa 0,0 l/m 0 min 0 min 104 W/m 16,7 km/h (3 Bft)
16.04.2015 08:30 7,5 C 7,2 C 95 % 1015,7 hPa 0,0 l/m 0 min 0 min 106 W/m 16,7 km/h (3 Bft)
16.04.2015 08:32 7,6 C 7,2 C 95 % 1015,7 hPa 0,0 l/m 0 min 0 min 114 W/m 16,7 km/h (3 Bft)
16.04.2015 08:34 7,6 C 7,2 C 95 % 1015,7 hPa 0,0 l/m 0 min 0 min 114 W/m 16,7 km/h (3 Bft)
16.04.2015 08:36 7,6 C 7,2 C 95 % 1015,7 hPa 0,0 l/m 0 min 0 min 114 W/m 16,7 km/h (3 Bft)
16.04.2015 08:38 7,7 C 7,2 C 95 % 1015,8 hPa 0,0 l/m 0 min 0 min 127 W/m 10,5 km/h (2 Bft)
16.04.2015 08:40 7,7 C 7,2 C 95 % 1015,8 hPa 0,0 l/m 0 min 0 min 128 W/m 16,7 km/h (3 Bft)
16.04.2015 08:42 7,7 C 7,8 C 95 % 1015,8 hPa 0,0 l/m 0 min 0 min 127 W/m 14,6 km/h (3 Bft)
16.04.2015 08:44 7,7 C 7,8 C 95 % 1015,8 hPa 0,0 l/m 0 min 0 min 128 W/m 20,9 km/h (4 Bft)
16.04.2015 08:46 7,8 C 7,8 C 95 % 1015,8 hPa 0,0 l/m 0 min 0 min 128 W/m 10,5 km/h (2 Bft)
16.04.2015 08:48 7,9 C 7,8 C 95 % 1015,8 hPa 0,0 l/m 0 min 0 min 137 W/m 14,6 km/h (3 Bft)
16.04.2015 08:50 7,9 C 7,8 C 95 % 1015,9 hPa 0,0 l/m 0 min 0 min 156 W/m 18,8 km/h (3 Bft)
16.04.2015 08:52 7,9 C 7,8 C 95 % 1015,9 hPa 0,0 l/m 0 min 0 min 155 W/m 18,8 km/h (3 Bft)
16.04.2015 08:54 8,0 C 7,8 C 95 % 1015,9 hPa 0,0 l/m 0 min 0 min 136 W/m 18,8 km/h (3 Bft)
16.04.2015 08:56 8,1 C 7,8 C 95 % 1015,9 hPa 0,0 l/m 0 min 0 min 140 W/m 16,7 km/h (3 Bft)
16.04.2015 08:58 8,1 C 7,8 C 95 % 1015,9 hPa 0,0 l/m 0 min 0 min 142 W/m 16,7 km/h (3 Bft)
16.04.2015 09:00 8,1 C 7,8 C 95 % 1015,9 hPa 0,0 l/m 0 min 0 min 139 W/m 23,0 km/h (4 Bft)
16.04.2015 09:02 8,1 C 7,8 C 95 % 1015,8 hPa 0,0 l/m 0 min 0 min 133 W/m 16,7 km/h (3 Bft)
16.04.2015 09:04 8,1 C 7,8 C 95 % 1015,9 hPa 0,0 l/m 0 min 0 min 141 W/m 20,9 km/h (4 Bft)
16.04.2015 09:06 8,1 C 7,8 C 95 % 1015,9 hPa 0,0 l/m 0 min 0 min 129 W/m 16,7 km/h (3 Bft)
16.04.2015 09:08 8,1 C 7,8 C 94 % 1015,9 hPa 0,0 l/m 0 min 0 min 148 W/m 16,7 km/h (3 Bft)
16.04.2015 09:10 8,1 C 7,8 C 94 % 1015,9 hPa 0,0 l/m 0 min 0 min 176 W/m 12,6 km/h (3 Bft)
16.04.2015 09:12 8,2 C 8,3 C 94 % 1015,9 hPa 0,0 l/m 2 min 0 min 207 W/m 14,6 km/h (3 Bft)
16.04.2015 09:14 8,3 C 8,3 C 94 % 1015,9 hPa 0,0 l/m 2 min 0 min 289 W/m 16,7 km/h (3 Bft)
16.04.2015 09:16 8,5 C 8,9 C 94 % 1016,0 hPa 0,0 l/m 2 min 0 min 299 W/m 16,7 km/h (3 Bft)
16.04.2015 09:18 8,7 C 9,4 C 94 % 1015,9 hPa 0,0 l/m 2 min 0 min 310 W/m 14,6 km/h (3 Bft)
16.04.2015 09:20 8,7 C 8,9 C 94 % 1015,9 hPa 0,0 l/m 2 min 0 min 324 W/m 20,9 km/h (4 Bft)
16.04.2015 09:22 8,7 C 8,9 C 94 % 1015,9 hPa 0,0 l/m 2 min 0 min 276 W/m 18,8 km/h (3 Bft)
16.04.2015 09:24 8,7 C 8,3 C 93 % 1015,9 hPa 0,0 l/m 2 min 0 min 248 W/m 18,8 km/h (3 Bft)
16.04.2015 09:26 8,7 C 8,9 C 93 % 1015,9 hPa 0,0 l/m 2 min 0 min 262 W/m 14,6 km/h (3 Bft)
16.04.2015 09:28 8,7 C 8,3 C 93 % 1015,8 hPa 0,0 l/m 2 min 0 min 270 W/m 16,7 km/h (3 Bft)
16.04.2015 09:30 8,7 C 8,9 C 92 % 1015,8 hPa 0,0 l/m 2 min 0 min 342 W/m 18,8 km/h (3 Bft)
16.04.2015 09:32 8,8 C 8,9 C 92 % 1015,8 hPa 0,0 l/m 2 min 0 min 230 W/m 16,7 km/h (3 Bft)
16.04.2015 09:34 8,8 C 8,3 C 92 % 1015,7 hPa 0,0 l/m 2 min 0 min 252 W/m 14,6 km/h (3 Bft)
16.04.2015 09:36 8,8 C 8,9 C 92 % 1015,7 hPa 0,0 l/m 2 min 0 min 262 W/m 14,6 km/h (3 Bft)
16.04.2015 09:38 8,9 C 8,9 C 92 % 1015,7 hPa 0,0 l/m 2 min 0 min 255 W/m 14,6 km/h (3 Bft)
16.04.2015 09:40 9,0 C 8,9 C 92 % 1015,7 hPa 0,0 l/m 2 min 0 min 274 W/m 16,7 km/h (3 Bft)
16.04.2015 09:42 9,1 C 8,9 C 92 % 1015,8 hPa 0,0 l/m 2 min 0 min 268 W/m 16,7 km/h (3 Bft)
16.04.2015 09:44 9,1 C 8,9 C 92 % 1015,8 hPa 0,0 l/m 2 min 0 min 296 W/m 14,6 km/h (3 Bft)
16.04.2015 09:46 9,2 C 8,9 C 91 % 1015,8 hPa 0,0 l/m 2 min 0 min 345 W/m 14,6 km/h (3 Bft)
16.04.2015 09:48 9,2 C 9,4 C 91 % 1015,8 hPa 0,0 l/m 2 min 0 min 367 W/m 14,6 km/h (3 Bft)
16.04.2015 09:50 9,3 C 9,4 C 91 % 1015,8 hPa 0,0 l/m 2 min 0 min 354 W/m 14,6 km/h (3 Bft)
16.04.2015 09:52 9,3 C 9,4 C 91 % 1015,8 hPa 0,0 l/m 2 min 0 min 274 W/m 14,6 km/h (3 Bft)
16.04.2015 09:54 9,3 C 8,9 C 91 % 1015,8 hPa 0,0 l/m 0 min 0 min 233 W/m 12,6 km/h (3 Bft)
16.04.2015 09:56 9,3 C 9,4 C 91 % 1015,8 hPa 0,0 l/m 2 min 0 min 266 W/m 10,5 km/h (2 Bft)
16.04.2015 09:58 9,4 C 9,4 C 91 % 1015,8 hPa 0,0 l/m 2 min 0 min 381 W/m 12,6 km/h (3 Bft)
16.04.2015 10:00 9,6 C 10,0 C 91 % 1015,9 hPa 0,0 l/m 2 min 0 min 374 W/m 14,6 km/h (3 Bft)
16.04.2015 10:02 9,8 C 10,0 C 90 % 1015,9 hPa 0,0 l/m 2 min 0 min 354 W/m 16,7 km/h (3 Bft)
16.04.2015 10:04 9,9 C 10,0 C 90 % 1015,9 hPa 0,0 l/m 2 min 0 min 427 W/m 10,5 km/h (2 Bft)
16.04.2015 10:06 9,9 C 10,0 C 89 % 1015,9 hPa 0,0 l/m 2 min 0 min 423 W/m 10,5 km/h (2 Bft)
16.04.2015 10:08 10,0 C 10,0 C 89 % 1015,9 hPa 0,0 l/m 2 min 0 min 473 W/m 14,6 km/h (3 Bft)
16.04.2015 10:10 10,1 C 10,0 C 89 % 1015,9 hPa 0,0 l/m 2 min 0 min 474 W/m 16,7 km/h (3 Bft)
16.04.2015 10:12 10,1 C 10,0 C 88 % 1015,9 hPa 0,0 l/m 2 min 0 min 480 W/m 16,7 km/h (3 Bft)
16.04.2015 10:14 10,2 C 10,0 C 88 % 1015,9 hPa 0,0 l/m 2 min 0 min 474 W/m 12,6 km/h (3 Bft)
16.04.2015 10:16 10,3 C 10,6 C 88 % 1015,9 hPa 0,0 l/m 2 min 0 min 463 W/m 12,6 km/h (3 Bft)
16.04.2015 10:18 10,2 C 10,0 C 87 % 1015,9 hPa 0,0 l/m 2 min 0 min 363 W/m 14,6 km/h (3 Bft)
16.04.2015 10:20 10,3 C 10,6 C 88 % 1015,9 hPa 0,0 l/m 2 min 0 min 474 W/m 16,7 km/h (3 Bft)
16.04.2015 10:22 10,4 C 10,6 C 87 % 1015,9 hPa 0,0 l/m 2 min 0 min 488 W/m 20,9 km/h (4 Bft)
16.04.2015 10:24 10,6 C 10,6 C 87 % 1016,0 hPa 0,0 l/m 2 min 0 min 497 W/m 14,6 km/h (3 Bft)
16.04.2015 10:26 10,7 C 10,6 C 87 % 1016,0 hPa 0,0 l/m 2 min 0 min 454 W/m 16,7 km/h (3 Bft)
16.04.2015 10:28 10,7 C 10,6 C 86 % 1016,0 hPa 0,0 l/m 2 min 0 min 502 W/m 16,7 km/h (3 Bft)
16.04.2015 10:30 10,8 C 10,6 C 86 % 1016,0 hPa 0,0 l/m 2 min 0 min 506 W/m 14,6 km/h (3 Bft)
16.04.2015 10:32 10,8 C 10,6 C 86 % 1016,0 hPa 0,0 l/m 2 min 0 min 505 W/m 16,7 km/h (3 Bft)
16.04.2015 10:34 10,9 C 11,1 C 85 % 1016,0 hPa 0,0 l/m 2 min 0 min 464 W/m 14,6 km/h (3 Bft)
16.04.2015 10:36 11,1 C 11,1 C 86 % 1016,0 hPa 0,0 l/m 2 min 0 min 469 W/m 18,8 km/h (3 Bft)
16.04.2015 10:38 11,1 C 11,1 C 85 % 1016,0 hPa 0,0 l/m 2 min 0 min 542 W/m 18,8 km/h (3 Bft)
16.04.2015 10:40 11,2 C 11,1 C 85 % 1016,0 hPa 0,0 l/m 2 min 0 min 536 W/m 20,9 km/h (4 Bft)
16.04.2015 10:42 11,2 C 11,1 C 84 % 1016,1 hPa 0,0 l/m 2 min 0 min 530 W/m 18,8 km/h (3 Bft)
16.04.2015 10:44 11,3 C 11,1 C 84 % 1016,1 hPa 0,0 l/m 2 min 0 min 520 W/m 16,7 km/h (3 Bft)
16.04.2015 10:46 11,4 C 11,1 C 84 % 1016,1 hPa 0,0 l/m 2 min 0 min 549 W/m 14,6 km/h (3 Bft)
16.04.2015 10:48 11,6 C 11,7 C 84 % 1016,0 hPa 0,0 l/m 2 min 0 min 541 W/m 10,5 km/h (2 Bft)
16.04.2015 10:50 11,7 C 11,7 C 83 % 1016,0 hPa 0,0 l/m 2 min 0 min 549 W/m 14,6 km/h (3 Bft)
16.04.2015 10:52 11,9 C 11,7 C 83 % 1016,0 hPa 0,0 l/m 2 min 0 min 563 W/m 14,6 km/h (3 Bft)
16.04.2015 10:54 12,0 C 12,2 C 82 % 1016,0 hPa 0,0 l/m 2 min 0 min 573 W/m 16,7 km/h (3 Bft)
16.04.2015 10:56 12,2 C 12,2 C 82 % 1016,1 hPa 0,0 l/m 2 min 0 min 576 W/m 16,7 km/h (3 Bft)
16.04.2015 10:58 12,2 C 12,2 C 82 % 1016,1 hPa 0,0 l/m 2 min 0 min 583 W/m 14,6 km/h (3 Bft)
16.04.2015 11:00 12,2 C 12,2 C 81 % 1016,1 hPa 0,0 l/m 2 min 0 min 587 W/m 20,9 km/h (4 Bft)
16.04.2015 11:02 12,2 C 11,7 C 81 % 1016,1 hPa 0,0 l/m 2 min 0 min 564 W/m 14,6 km/h (3 Bft)
16.04.2015 11:04 12,2 C 12,2 C 81 % 1016,1 hPa 0,0 l/m 2 min 0 min 595 W/m 14,6 km/h (3 Bft)
16.04.2015 11:06 12,3 C 12,2 C 81 % 1016,1 hPa 0,0 l/m 2 min 0 min 601 W/m 18,8 km/h (3 Bft)
16.04.2015 11:08 12,3 C 12,2 C 81 % 1016,1 hPa 0,0 l/m 2 min 0 min 596 W/m 16,7 km/h (3 Bft)
16.04.2015 11:10 12,3 C 12,2 C 81 % 1016,0 hPa 0,0 l/m 2 min 0 min 599 W/m 18,8 km/h (3 Bft)
16.04.2015 11:12 12,3 C 12,2 C 80 % 1016,0 hPa 0,0 l/m 2 min 0 min 588 W/m 20,9 km/h (4 Bft)
16.04.2015 11:14 12,3 C 12,2 C 80 % 1016,0 hPa 0,0 l/m 2 min 0 min 604 W/m 12,6 km/h (3 Bft)
16.04.2015 11:16 12,4 C 12,2 C 81 % 1016,1 hPa 0,0 l/m 2 min 0 min 610 W/m 14,6 km/h (3 Bft)
16.04.2015 11:18 12,4 C 12,2 C 80 % 1016,1 hPa 0,0 l/m 2 min 0 min 622 W/m 20,9 km/h (4 Bft)
16.04.2015 11:20 12,4 C 12,2 C 79 % 1016,1 hPa 0,0 l/m 2 min 0 min 618 W/m 20,9 km/h (4 Bft)
16.04.2015 11:22 12,5 C 12,2 C 79 % 1016,1 hPa 0,0 l/m 2 min 0 min 633 W/m 14,6 km/h (3 Bft)
16.04.2015 11:24 12,7 C 12,8 C 80 % 1016,1 hPa 0,0 l/m 2 min 0 min 638 W/m 16,7 km/h (3 Bft)
16.04.2015 11:26 12,8 C 12,8 C 79 % 1016,1 hPa 0,0 l/m 2 min 0 min 631 W/m 16,7 km/h (3 Bft)
16.04.2015 11:28 12,9 C 12,8 C 78 % 1016,2 hPa 0,0 l/m 2 min 0 min 631 W/m 20,9 km/h (4 Bft)
16.04.2015 11:30 13,0 C 12,8 C 78 % 1016,1 hPa 0,0 l/m 2 min 0 min 636 W/m 16,7 km/h (3 Bft)
16.04.2015 11:32 12,9 C 12,8 C 77 % 1016,1 hPa 0,0 l/m 2 min 0 min 661 W/m 14,6 km/h (3 Bft)
16.04.2015 11:34 13,2 C 12,8 C 79 % 1016,1 hPa 0,0 l/m 2 min 0 min 655 W/m 16,7 km/h (3 Bft)
16.04.2015 11:36 13,4 C 13,3 C 78 % 1016,2 hPa 0,0 l/m 2 min 0 min 661 W/m 14,6 km/h (3 Bft)
16.04.2015 11:38 13,4 C 13,3 C 77 % 1016,1 hPa 0,0 l/m 2 min 0 min 654 W/m 14,6 km/h (3 Bft)
16.04.2015 11:40 13,3 C 12,8 C 76 % 1016,2 hPa 0,0 l/m 2 min 0 min 633 W/m 20,9 km/h (4 Bft)
16.04.2015 11:42 13,2 C 12,8 C 77 % 1016,1 hPa 0,0 l/m 2 min 0 min 664 W/m 14,6 km/h (3 Bft)
16.04.2015 11:44 13,2 C 12,8 C 77 % 1016,1 hPa 0,0 l/m 2 min 0 min 678 W/m 12,6 km/h (3 Bft)
16.04.2015 11:46 13,3 C 13,3 C 78 % 1016,1 hPa 0,0 l/m 2 min 0 min 680 W/m 10,5 km/h (2 Bft)
16.04.2015 11:48 13,4 C 12,8 C 77 % 1016,1 hPa 0,0 l/m 2 min 0 min 662 W/m 16,7 km/h (3 Bft)
16.04.2015 11:50 13,4 C 12,8 C 77 % 1016,1 hPa 0,0 l/m 2 min 0 min 668 W/m 12,6 km/h (3 Bft)
16.04.2015 11:52 13,6 C 13,3 C 78 % 1016,1 hPa 0,0 l/m 2 min 0 min 679 W/m 16,7 km/h (3 Bft)
16.04.2015 11:54 13,8 C 13,9 C 78 % 1016,1 hPa 0,0 l/m 2 min 0 min 672 W/m 23,0 km/h (4 Bft)
16.04.2015 11:56 14,0 C 13,9 C 77 % 1016,1 hPa 0,0 l/m 2 min 0 min 668 W/m 16,7 km/h (3 Bft)
16.04.2015 11:58 14,2 C 13,9 C 76 % 1016,1 hPa 0,0 l/m 2 min 0 min 691 W/m 14,6 km/h (3 Bft)
16.04.2015 12:00 14,2 C 13,9 C 75 % 1016,1 hPa 0,0 l/m 2 min 0 min 692 W/m 14,6 km/h (3 Bft)
16.04.2015 12:02 14,2 C 13,9 C 75 % 1016,0 hPa 0,0 l/m 2 min 0 min 688 W/m 16,7 km/h (3 Bft)
16.04.2015 12:06 14,2 C 13,9 C 74 % 1015,9 hPa 0,0 l/m 2 min 0 min 658 W/m 20,9 km/h (4 Bft)
16.04.2015 12:08 14,3 C 13,9 C 74 % 1016,1 hPa 0,0 l/m 0 min 0 min 241 W/m 20,9 km/h (4 Bft)
16.04.2015 12:10 14,3 C 13,9 C 73 % 1016,0 hPa 0,0 l/m 2 min 0 min 425 W/m 14,6 km/h (3 Bft)
16.04.2015 12:12 14,4 C 13,9 C 73 % 1016,0 hPa 0,0 l/m 2 min 0 min 690 W/m 20,9 km/h (4 Bft)
16.04.2015 12:14 14,4 C 13,9 C 73 % 1015,9 hPa 0,0 l/m 2 min 0 min 696 W/m 18,8 km/h (3 Bft)
16.04.2015 12:16 14,4 C 13,9 C 73 % 1015,9 hPa 0,0 l/m 2 min 0 min 697 W/m 12,6 km/h (3 Bft)
16.04.2015 12:18 14,6 C 14,4 C 74 % 1015,8 hPa 0,0 l/m 2 min 0 min 701 W/m 20,9 km/h (4 Bft)
16.04.2015 12:20 14,7 C 14,4 C 74 % 1015,9 hPa 0,0 l/m 2 min 0 min 637 W/m 16,7 km/h (3 Bft)
16.04.2015 12:22 14,8 C 14,4 C 73 % 1015,9 hPa 0,0 l/m 2 min 0 min 536 W/m 16,7 km/h (3 Bft)
16.04.2015 12:24 14,8 C 14,4 C 72 % 1015,9 hPa 0,0 l/m 2 min 0 min 426 W/m 16,7 km/h (3 Bft)
16.04.2015 12:26 14,9 C 14,4 C 72 % 1015,9 hPa 0,0 l/m 2 min 0 min 379 W/m 10,5 km/h (2 Bft)
16.04.2015 12:28 14,9 C 14,4 C 72 % 1015,9 hPa 0,0 l/m 2 min 0 min 449 W/m 20,9 km/h (4 Bft)
16.04.2015 12:30 14,9 C 14,4 C 71 % 1015,9 hPa 0,0 l/m 2 min 0 min 588 W/m 16,7 km/h (3 Bft)
16.04.2015 12:32 15,0 C 14,4 C 71 % 1015,8 hPa 0,0 l/m 2 min 0 min 669 W/m 20,9 km/h (4 Bft)
16.04.2015 12:34 15,0 C 14,4 C 70 % 1015,8 hPa 0,0 l/m 2 min 0 min 719 W/m 23,0 km/h (4 Bft)
16.04.2015 12:36 15,1 C 14,4 C 70 % 1015,8 hPa 0,0 l/m 2 min 0 min 719 W/m 18,8 km/h (3 Bft)
16.04.2015 12:38 15,1 C 14,4 C 70 % 1015,8 hPa 0,0 l/m 2 min 0 min 725 W/m 23,0 km/h (4 Bft)
16.04.2015 12:40 15,2 C 15,0 C 70 % 1015,7 hPa 0,0 l/m 2 min 0 min 730 W/m 16,7 km/h (3 Bft)
16.04.2015 12:42 15,2 C 15,0 C 70 % 1015,7 hPa 0,0 l/m 2 min 0 min 728 W/m 25,1 km/h (4 Bft)
16.04.2015 12:44 15,2 C 14,4 C 69 % 1015,7 hPa 0,0 l/m 2 min 0 min 730 W/m 23,0 km/h (4 Bft)
16.04.2015 12:46 15,2 C 15,0 C 69 % 1015,7 hPa 0,0 l/m 2 min 0 min 737 W/m 18,8 km/h (3 Bft)
16.04.2015 12:48 15,2 C 15,0 C 69 % 1015,7 hPa 0,0 l/m 2 min 0 min 740 W/m 20,9 km/h (4 Bft)
16.04.2015 12:50 15,2 C 14,4 C 69 % 1015,7 hPa 0,0 l/m 2 min 0 min 742 W/m 23,0 km/h (4 Bft)
16.04.2015 12:52 15,2 C 15,0 C 69 % 1015,7 hPa 0,0 l/m 2 min 0 min 743 W/m 18,8 km/h (3 Bft)
16.04.2015 12:54 15,3 C 15,0 C 69 % 1015,7 hPa 0,0 l/m 2 min 0 min 738 W/m 18,8 km/h (3 Bft)
16.04.2015 12:56 15,3 C 15,0 C 69 % 1015,7 hPa 0,0 l/m 2 min 0 min 735 W/m 16,7 km/h (3 Bft)
16.04.2015 12:58 15,4 C 15,0 C 68 % 1015,7 hPa 0,0 l/m 2 min 0 min 746 W/m 14,6 km/h (3 Bft)
16.04.2015 13:00 15,4 C 15,0 C 68 % 1015,7 hPa 0,0 l/m 2 min 0 min 749 W/m 14,6 km/h (3 Bft)
16.04.2015 13:02 15,5 C 15,0 C 68 % 1015,8 hPa 0,0 l/m 2 min 0 min 740 W/m 16,7 km/h (3 Bft)
16.04.2015 13:04 15,6 C 15,0 C 68 % 1015,7 hPa 0,0 l/m 2 min 0 min 745 W/m 20,9 km/h (4 Bft)
16.04.2015 13:06 15,7 C 16,1 C 68 % 1015,6 hPa 0,0 l/m 2 min 0 min 752 W/m 16,7 km/h (3 Bft)
16.04.2015 13:08 15,8 C 16,1 C 68 % 1015,6 hPa 0,0 l/m 2 min 0 min 750 W/m 14,6 km/h (3 Bft)
16.04.2015 13:10 15,9 C 16,1 C 68 % 1015,6 hPa 0,0 l/m 2 min 0 min 750 W/m 12,6 km/h (3 Bft)
16.04.2015 13:12 16,0 C 16,1 C 68 % 1015,7 hPa 0,0 l/m 2 min 0 min 745 W/m 23,0 km/h (4 Bft)
16.04.2015 13:14 16,0 C 15,6 C 66 % 1015,7 hPa 0,0 l/m 2 min 0 min 742 W/m 16,7 km/h (3 Bft)
16.04.2015 13:16 16,0 C 15,6 C 67 % 1015,7 hPa 0,0 l/m 2 min 0 min 746 W/m 18,8 km/h (3 Bft)
16.04.2015 13:18 16,1 C 15,6 C 67 % 1015,6 hPa 0,0 l/m 2 min 0 min 749 W/m 18,8 km/h (3 Bft)
16.04.2015 13:20 16,1 C 15,6 C 66 % 1015,5 hPa 0,0 l/m 2 min 0 min 746 W/m 12,6 km/h (3 Bft)
16.04.2015 13:22 16,2 C 16,1 C 67 % 1015,5 hPa 0,0 l/m 2 min 0 min 748 W/m 20,9 km/h (4 Bft)
16.04.2015 13:24 16,2 C 16,1 C 67 % 1015,5 hPa 0,0 l/m 2 min 0 min 744 W/m 18,8 km/h (3 Bft)
16.04.2015 13:26 16,3 C 15,6 C 65 % 1015,5 hPa 0,0 l/m 2 min 0 min 754 W/m 14,6 km/h (3 Bft)
16.04.2015 13:28 16,3 C 15,6 C 65 % 1015,5 hPa 0,0 l/m 2 min 0 min 758 W/m 18,8 km/h (3 Bft)
16.04.2015 13:30 16,3 C 15,6 C 65 % 1015,6 hPa 0,0 l/m 2 min 0 min 756 W/m 18,8 km/h (3 Bft)
16.04.2015 13:32 16,3 C 15,6 C 66 % 1015,5 hPa 0,0 l/m 2 min 0 min 747 W/m 18,8 km/h (3 Bft)
16.04.2015 13:34 16,3 C 15,6 C 65 % 1015,4 hPa 0,0 l/m 2 min 0 min 745 W/m 12,6 km/h (3 Bft)
16.04.2015 13:36 16,4 C 16,1 C 66 % 1015,4 hPa 0,0 l/m 2 min 0 min 749 W/m 23,0 km/h (4 Bft)
16.04.2015 13:38 16,4 C 16,1 C 65 % 1015,4 hPa 0,0 l/m 2 min 0 min 737 W/m 18,8 km/h (3 Bft)
16.04.2015 13:40 16,5 C 16,1 C 65 % 1015,4 hPa 0,0 l/m 2 min 0 min 736 W/m 18,8 km/h (3 Bft)
16.04.2015 13:42 16,6 C 16,1 C 64 % 1015,5 hPa 0,0 l/m 2 min 0 min 748 W/m 25,1 km/h (4 Bft)
16.04.2015 13:44 16,6 C 15,6 C 64 % 1015,4 hPa 0,0 l/m 2 min 0 min 743 W/m 18,8 km/h (3 Bft)
16.04.2015 13:46 16,6 C 15,6 C 63 % 1015,4 hPa 0,0 l/m 2 min 0 min 742 W/m 14,6 km/h (3 Bft)
16.04.2015 13:48 16,6 C 15,6 C 64 % 1015,4 hPa 0,0 l/m 2 min 0 min 742 W/m 23,0 km/h (4 Bft)
16.04.2015 13:50 16,6 C 16,1 C 63 % 1015,3 hPa 0,0 l/m 2 min 0 min 745 W/m 16,7 km/h (3 Bft)
16.04.2015 13:52 16,6 C 16,1 C 63 % 1015,3 hPa 0,0 l/m 2 min 0 min 745 W/m 14,6 km/h (3 Bft)
16.04.2015 13:54 16,7 C 16,1 C 63 % 1015,3 hPa 0,0 l/m 2 min 0 min 742 W/m 10,5 km/h (2 Bft)
16.04.2015 13:56 16,7 C 16,1 C 63 % 1015,3 hPa 0,0 l/m 2 min 0 min 741 W/m 18,8 km/h (3 Bft)
16.04.2015 13:58 16,8 C 16,7 C 63 % 1015,3 hPa 0,0 l/m 2 min 0 min 739 W/m 23,0 km/h (4 Bft)
16.04.2015 14:00 16,8 C 16,7 C 63 % 1015,2 hPa 0,0 l/m 2 min 0 min 736 W/m 20,9 km/h (4 Bft)
16.04.2015 14:02 16,9 C 16,7 C 62 % 1015,1 hPa 0,0 l/m 2 min 0 min 736 W/m 16,7 km/h (3 Bft)
16.04.2015 14:04 16,9 C 16,7 C 61 % 1015,1 hPa 0,0 l/m 2 min 0 min 740 W/m 18,8 km/h (3 Bft)
16.04.2015 14:06 16,9 C 16,1 C 61 % 1015,2 hPa 0,0 l/m 2 min 0 min 738 W/m 14,6 km/h (3 Bft)
16.04.2015 14:08 17,0 C 16,7 C 62 % 1015,0 hPa 0,0 l/m 2 min 0 min 738 W/m 10,5 km/h (2 Bft)
16.04.2015 14:10 17,1 C 16,7 C 62 % 1015,2 hPa 0,0 l/m 2 min 0 min 737 W/m 20,9 km/h (4 Bft)
16.04.2015 14:12 17,1 C 16,7 C 62 % 1015,0 hPa 0,0 l/m 2 min 0 min 737 W/m 20,9 km/h (4 Bft)
16.04.2015 14:14 17,1 C 16,7 C 62 % 1015,0 hPa 0,0 l/m 2 min 0 min 735 W/m 16,7 km/h (3 Bft)
16.04.2015 14:16 17,1 C 16,7 C 62 % 1015,0 hPa 0,0 l/m 2 min 0 min 730 W/m 16,7 km/h (3 Bft)
16.04.2015 14:18 17,1 C 16,7 C 60 % 1015,0 hPa 0,0 l/m 2 min 0 min 731 W/m 20,9 km/h (4 Bft)
16.04.2015 14:20 17,1 C 16,1 C 60 % 1015,0 hPa 0,0 l/m 2 min 0 min 730 W/m 20,9 km/h (4 Bft)
16.04.2015 14:22 17,1 C 16,7 C 61 % 1014,9 hPa 0,0 l/m 2 min 0 min 725 W/m 20,9 km/h (4 Bft)
16.04.2015 14:24 17,1 C 16,7 C 61 % 1015,0 hPa 0,0 l/m 2 min 0 min 724 W/m 16,7 km/h (3 Bft)
16.04.2015 14:26 17,1 C 16,7 C 61 % 1014,9 hPa 0,0 l/m 2 min 0 min 719 W/m 10,5 km/h (2 Bft)
16.04.2015 14:28 17,1 C 17,8 C 62 % 1014,9 hPa 0,0 l/m 2 min 0 min 719 W/m 20,9 km/h (4 Bft)
16.04.2015 14:30 17,2 C 17,8 C 61 % 1014,9 hPa 0,0 l/m 2 min 0 min 719 W/m 16,7 km/h (3 Bft)
16.04.2015 14:32 17,2 C 17,8 C 60 % 1014,9 hPa 0,0 l/m 2 min 0 min 719 W/m 20,9 km/h (4 Bft)
16.04.2015 14:34 17,3 C 18,9 C 60 % 1014,8 hPa 0,0 l/m 2 min 0 min 717 W/m 16,7 km/h (3 Bft)
16.04.2015 14:36 17,3 C 18,9 C 59 % 1014,9 hPa 0,0 l/m 2 min 0 min 712 W/m 23,0 km/h (4 Bft)
16.04.2015 14:38 17,3 C 20,0 C 59 % 1014,8 hPa 0,0 l/m 2 min 0 min 706 W/m 14,6 km/h (3 Bft)
16.04.2015 14:40 17,3 C 20,6 C 59 % 1014,8 hPa 0,0 l/m 2 min 0 min 705 W/m 14,6 km/h (3 Bft)
16.04.2015 14:42 17,3 C 21,7 C 60 % 1014,9 hPa 0,0 l/m 2 min 0 min 708 W/m 18,8 km/h (3 Bft)
16.04.2015 14:44 17,3 C 22,2 C 60 % 1014,8 hPa 0,0 l/m 2 min 0 min 706 W/m 14,6 km/h (3 Bft)
16.04.2015 14:46 17,3 C 23,3 C 59 % 1014,8 hPa 0,0 l/m 2 min 0 min 705 W/m 10,5 km/h (2 Bft)
16.04.2015 14:48 17,4 C 23,3 C 60 % 1014,8 hPa 0,0 l/m 2 min 0 min 705 W/m 16,7 km/h (3 Bft)
16.04.2015 14:50 17,4 C 22,8 C 60 % 1014,8 hPa 0,0 l/m 2 min 0 min 701 W/m 18,8 km/h (3 Bft)
16.04.2015 14:52 17,4 C 21,1 C 58 % 1014,8 hPa 0,0 l/m 2 min 0 min 699 W/m 16,7 km/h (3 Bft)
16.04.2015 14:54 17,4 C 21,1 C 59 % 1014,8 hPa 0,0 l/m 2 min 0 min 685 W/m 16,7 km/h (3 Bft)
16.04.2015 14:56 17,3 C 21,7 C 59 % 1014,8 hPa 0,0 l/m 2 min 0 min 689 W/m 14,6 km/h (3 Bft)
16.04.2015 14:58 17,3 C 21,7 C 59 % 1014,7 hPa 0,0 l/m 2 min 0 min 691 W/m 20,9 km/h (4 Bft)
16.04.2015 15:00 17,2 C 21,7 C 60 % 1014,7 hPa 0,0 l/m 2 min 0 min 688 W/m 23,0 km/h (4 Bft)
16.04.2015 15:02 17,2 C 21,7 C 60 % 1014,8 hPa 0,0 l/m 2 min 0 min 683 W/m 18,8 km/h (3 Bft)
16.04.2015 15:04 17,2 C 22,2 C 59 % 1014,7 hPa 0,0 l/m 2 min 0 min 683 W/m 16,7 km/h (3 Bft)
16.04.2015 15:06 17,3 C 22,2 C 60 % 1014,7 hPa 0,0 l/m 2 min 0 min 680 W/m 20,9 km/h (4 Bft)
16.04.2015 15:08 17,3 C 22,2 C 60 % 1014,8 hPa 0,0 l/m 2 min 0 min 678 W/m 18,8 km/h (3 Bft)
16.04.2015 15:10 17,3 C 22,2 C 60 % 1014,6 hPa 0,0 l/m 2 min 0 min 673 W/m 20,9 km/h (4 Bft)
16.04.2015 15:12 17,3 C 21,7 C 60 % 1014,7 hPa 0,0 l/m 2 min 0 min 664 W/m 16,7 km/h (3 Bft)
16.04.2015 15:14 17,3 C 21,7 C 59 % 1014,6 hPa 0,0 l/m 2 min 0 min 661 W/m 23,0 km/h (4 Bft)
16.04.2015 15:16 17,3 C 21,1 C 60 % 1014,6 hPa 0,0 l/m 2 min 0 min 660 W/m 23,0 km/h (4 Bft)
16.04.2015 15:18 17,3 C 21,7 C 60 % 1014,6 hPa 0,0 l/m 2 min 0 min 662 W/m 23,0 km/h (4 Bft)
16.04.2015 15:20 17,3 C 21,7 C 59 % 1014,6 hPa 0,0 l/m 2 min 0 min 660 W/m 18,8 km/h (3 Bft)
16.04.2015 15:22 17,2 C 21,7 C 60 % 1014,6 hPa 0,0 l/m 2 min 0 min 655 W/m 14,6 km/h (3 Bft)
16.04.2015 15:24 17,2 C 22,8 C 61 % 1014,6 hPa 0,0 l/m 2 min 0 min 653 W/m 23,0 km/h (4 Bft)
16.04.2015 15:26 17,2 C 22,8 C 60 % 1014,5 hPa 0,0 l/m 2 min 0 min 650 W/m 16,7 km/h (3 Bft)
16.04.2015 15:28 17,2 C 21,7 C 60 % 1014,5 hPa 0,0 l/m 2 min 0 min 646 W/m 16,7 km/h (3 Bft)
16.04.2015 15:30 17,2 C 22,2 C 60 % 1014,4 hPa 0,0 l/m 2 min 0 min 645 W/m 25,1 km/h (4 Bft)
16.04.2015 15:32 17,2 C 22,2 C 60 % 1014,3 hPa 0,0 l/m 2 min 0 min 642 W/m 20,9 km/h (4 Bft)
16.04.2015 15:34 17,3 C 22,2 C 60 % 1014,3 hPa 0,0 l/m 2 min 0 min 636 W/m 20,9 km/h (4 Bft)
16.04.2015 15:36 17,3 C 22,2 C 59 % 1014,4 hPa 0,0 l/m 2 min 0 min 637 W/m 20,9 km/h (4 Bft)
16.04.2015 15:38 17,3 C 22,2 C 59 % 1014,3 hPa 0,0 l/m 2 min 0 min 636 W/m 16,7 km/h (3 Bft)
16.04.2015 15:40 17,3 C 22,8 C 59 % 1014,2 hPa 0,0 l/m 2 min 0 min 629 W/m 16,7 km/h (3 Bft)
16.04.2015 15:42 17,3 C 22,2 C 59 % 1014,2 hPa 0,0 l/m 2 min 0 min 623 W/m 20,9 km/h (4 Bft)
16.04.2015 15:44 17,3 C 22,2 C 59 % 1014,2 hPa 0,0 l/m 2 min 0 min 626 W/m 14,6 km/h (3 Bft)
16.04.2015 15:46 17,3 C 22,2 C 59 % 1014,3 hPa 0,0 l/m 2 min 0 min 622 W/m 25,1 km/h (4 Bft)
16.04.2015 15:48 17,3 C 22,2 C 58 % 1014,2 hPa 0,0 l/m 2 min 0 min 620 W/m 20,9 km/h (4 Bft)
16.04.2015 15:50 17,3 C 22,2 C 58 % 1014,1 hPa 0,0 l/m 2 min 0 min 615 W/m 20,9 km/h (4 Bft)
16.04.2015 15:52 17,3 C 21,7 C 58 % 1014,1 hPa 0,0 l/m 2 min 0 min 612 W/m 25,1 km/h (4 Bft)
16.04.2015 15:54 17,3 C 22,2 C 59 % 1014,1 hPa 0,0 l/m 2 min 0 min 604 W/m 23,0 km/h (4 Bft)
16.04.2015 15:56 17,3 C 22,2 C 58 % 1014,1 hPa 0,0 l/m 2 min 0 min 604 W/m 23,0 km/h (4 Bft)
16.04.2015 15:58 17,4 C 22,8 C 59 % 1014,1 hPa 0,0 l/m 2 min 0 min 597 W/m 23,0 km/h (4 Bft)
16.04.2015 16:00 17,4 C 22,2 C 58 % 1014,0 hPa 0,0 l/m 2 min 0 min 591 W/m 27,2 km/h (4 Bft)
16.04.2015 16:02 17,4 C 22,2 C 58 % 1014,0 hPa 0,0 l/m 2 min 0 min 588 W/m 23,0 km/h (4 Bft)
16.04.2015 16:04 17,4 C 22,2 C 57 % 1014,0 hPa 0,0 l/m 2 min 0 min 583 W/m 23,0 km/h (4 Bft)
16.04.2015 16:06 17,4 C 22,2 C 58 % 1014,0 hPa 0,0 l/m 2 min 0 min 582 W/m 25,1 km/h (4 Bft)
16.04.2015 16:08 17,4 C 22,2 C 58 % 1013,9 hPa 0,0 l/m 2 min 0 min 579 W/m 23,0 km/h (4 Bft)
16.04.2015 16:10 17,4 C 22,2 C 57 % 1013,9 hPa 0,0 l/m 2 min 0 min 574 W/m 27,2 km/h (4 Bft)
16.04.2015 16:12 17,4 C 21,7 C 56 % 1013,9 hPa 0,0 l/m 2 min 0 min 571 W/m 25,1 km/h (4 Bft)
16.04.2015 16:14 17,4 C 22,2 C 57 % 1013,9 hPa 0,0 l/m 2 min 0 min 565 W/m 27,2 km/h (4 Bft)
16.04.2015 16:16 17,3 C 21,7 C 56 % 1013,9 hPa 0,0 l/m 2 min 0 min 563 W/m 23,0 km/h (4 Bft)
16.04.2015 16:18 17,3 C 22,2 C 56 % 1013,9 hPa 0,0 l/m 2 min 0 min 557 W/m 18,8 km/h (3 Bft)
16.04.2015 16:20 17,3 C 22,8 C 56 % 1013,9 hPa 0,0 l/m 2 min 0 min 555 W/m 16,7 km/h (3 Bft)
16.04.2015 16:22 17,3 C 22,2 C 56 % 1013,8 hPa 0,0 l/m 2 min 0 min 553 W/m 23,0 km/h (4 Bft)
16.04.2015 16:24 17,3 C 22,8 C 56 % 1013,9 hPa 0,0 l/m 2 min 0 min 550 W/m 27,2 km/h (4 Bft)
16.04.2015 16:26 17,3 C 22,2 C 56 % 1013,8 hPa 0,0 l/m 2 min 0 min 544 W/m 23,0 km/h (4 Bft)
16.04.2015 16:28 17,3 C 21,7 C 55 % 1013,7 hPa 0,0 l/m 2 min 0 min 540 W/m 23,0 km/h (4 Bft)
16.04.2015 16:30 17,3 C 22,2 C 55 % 1013,8 hPa 0,0 l/m 2 min 0 min 536 W/m 23,0 km/h (4 Bft)
16.04.2015 16:32 17,3 C 21,7 C 55 % 1013,7 hPa 0,0 l/m 2 min 0 min 531 W/m 20,9 km/h (4 Bft)
16.04.2015 16:34 17,3 C 22,2 C 56 % 1013,8 hPa 0,0 l/m 2 min 0 min 528 W/m 27,2 km/h (4 Bft)
16.04.2015 16:36 17,3 C 22,2 C 56 % 1013,8 hPa 0,0 l/m 2 min 0 min 525 W/m 18,8 km/h (3 Bft)
16.04.2015 16:38 17,4 C 22,2 C 55 % 1013,7 hPa 0,0 l/m 2 min 0 min 516 W/m 20,9 km/h (4 Bft)
16.04.2015 16:40 17,4 C 21,7 C 55 % 1013,8 hPa 0,0 l/m 2 min 0 min 513 W/m 23,0 km/h (4 Bft)
16.04.2015 16:42 17,4 C 21,1 C 55 % 1013,7 hPa 0,0 l/m 2 min 0 min 510 W/m 25,1 km/h (4 Bft)
16.04.2015 16:44 17,4 C 20,0 C 54 % 1013,7 hPa 0,0 l/m 2 min 0 min 506 W/m 23,0 km/h (4 Bft)
16.04.2015 16:46 17,3 C 19,4 C 54 % 1013,8 hPa 0,0 l/m 2 min 0 min 498 W/m 23,0 km/h (4 Bft)
16.04.2015 16:48 17,3 C 18,9 C 54 % 1013,7 hPa 0,0 l/m 2 min 0 min 492 W/m 20,9 km/h (4 Bft)
16.04.2015 16:50 17,3 C 18,3 C 54 % 1013,7 hPa 0,0 l/m 2 min 0 min 475 W/m 18,8 km/h (3 Bft)
16.04.2015 16:52 17,3 C 18,3 C 54 % 1013,7 hPa 0,0 l/m 2 min 0 min 459 W/m 25,1 km/h (4 Bft)
16.04.2015 16:54 17,2 C 18,9 C 54 % 1013,7 hPa 0,0 l/m 2 min 0 min 411 W/m 20,9 km/h (4 Bft)
16.04.2015 16:56 17,2 C 19,4 C 55 % 1013,7 hPa 0,0 l/m 2 min 0 min 461 W/m 18,8 km/h (3 Bft)
16.04.2015 16:58 17,3 C 18,9 C 55 % 1013,6 hPa 0,0 l/m 2 min 0 min 482 W/m 20,9 km/h (4 Bft)
16.04.2015 17:00 17,2 C 17,8 C 55 % 1013,6 hPa 0,0 l/m 2 min 0 min 286 W/m 18,8 km/h (3 Bft)
16.04.2015 17:02 17,2 C 17,8 C 54 % 1013,7 hPa 0,0 l/m 0 min 0 min 212 W/m 25,1 km/h (4 Bft)
16.04.2015 17:04 17,1 C 18,9 C 54 % 1013,7 hPa 0,0 l/m 2 min 0 min 387 W/m 29,3 km/h (5 Bft)
16.04.2015 17:06 17,0 C 19,4 C 54 % 1013,7 hPa 0,0 l/m 2 min 0 min 533 W/m 25,1 km/h (4 Bft)
16.04.2015 17:08 17,0 C 20,0 C 55 % 1013,7 hPa 0,0 l/m 2 min 0 min 521 W/m 27,2 km/h (4 Bft)
16.04.2015 17:10 16,9 C 20,0 C 55 % 1013,6 hPa 0,0 l/m 2 min 0 min 511 W/m 25,1 km/h (4 Bft)
16.04.2015 17:12 16,9 C 20,6 C 55 % 1013,6 hPa 0,0 l/m 2 min 0 min 488 W/m 27,2 km/h (4 Bft)
16.04.2015 17:14 16,9 C 20,6 C 55 % 1013,6 hPa 0,0 l/m 2 min 0 min 482 W/m 29,3 km/h (5 Bft)
16.04.2015 17:16 17,0 C 21,1 C 54 % 1013,6 hPa 0,0 l/m 2 min 0 min 461 W/m 18,8 km/h (3 Bft)
16.04.2015 17:18 17,0 C 20,6 C 55 % 1013,6 hPa 0,0 l/m 2 min 0 min 438 W/m 20,9 km/h (4 Bft)
16.04.2015 17:20 17,1 C 19,4 C 55 % 1013,5 hPa 0,0 l/m 2 min 0 min 425 W/m 23,0 km/h (4 Bft)
16.04.2015 17:22 17,1 C 18,3 C 54 % 1013,5 hPa 0,0 l/m 2 min 0 min 412 W/m 27,2 km/h (4 Bft)
16.04.2015 17:24 17,0 C 18,3 C 55 % 1013,5 hPa 0,0 l/m 2 min 0 min 406 W/m 27,2 km/h (4 Bft)
16.04.2015 17:26 17,0 C 17,8 C 54 % 1013,5 hPa 0,0 l/m 2 min 0 min 401 W/m 29,3 km/h (5 Bft)
16.04.2015 17:28 17,0 C 17,2 C 54 % 1013,5 hPa 0,0 l/m 2 min 0 min 394 W/m 23,0 km/h (4 Bft)
16.04.2015 17:30 16,9 C 16,7 C 55 % 1013,5 hPa 0,0 l/m 2 min 0 min 386 W/m 25,1 km/h (4 Bft)
16.04.2015 17:32 16,9 C 17,2 C 55 % 1013,6 hPa 0,0 l/m 2 min 0 min 383 W/m 29,3 km/h (5 Bft)
16.04.2015 17:34 16,9 C 17,2 C 55 % 1013,7 hPa 0,0 l/m 2 min 0 min 380 W/m 25,1 km/h (4 Bft)
16.04.2015 17:36 16,8 C 16,7 C 54 % 1013,6 hPa 0,0 l/m 2 min 0 min 377 W/m 29,3 km/h (5 Bft)
16.04.2015 17:38 16,8 C 16,1 C 54 % 1013,5 hPa 0,0 l/m 2 min 0 min 370 W/m 29,3 km/h (5 Bft)
16.04.2015 17:40 16,7 C 16,1 C 55 % 1013,5 hPa 0,0 l/m 2 min 0 min 366 W/m 23,0 km/h (4 Bft)
16.04.2015 17:42 16,7 C 16,1 C 54 % 1013,5 hPa 0,0 l/m 2 min 0 min 350 W/m 31,4 km/h (5 Bft)
16.04.2015 17:44 16,6 C 15,6 C 54 % 1013,5 hPa 0,0 l/m 2 min 0 min 341 W/m 31,4 km/h (5 Bft)
16.04.2015 17:46 16,6 C 16,1 C 55 % 1013,5 hPa 0,0 l/m 2 min 0 min 341 W/m 25,1 km/h (4 Bft)
16.04.2015 17:48 16,5 C 15,6 C 55 % 1013,5 hPa 0,0 l/m 2 min 0 min 328 W/m 20,9 km/h (4 Bft)
16.04.2015 17:50 16,4 C 15,6 C 54 % 1013,5 hPa 0,0 l/m 2 min 0 min 333 W/m 23,0 km/h (4 Bft)
16.04.2015 17:52 16,4 C 15,6 C 54 % 1013,5 hPa 0,0 l/m 2 min 0 min 333 W/m 27,2 km/h (4 Bft)
16.04.2015 17:54 16,4 C 15,6 C 54 % 1013,5 hPa 0,0 l/m 2 min 0 min 348 W/m 29,3 km/h (5 Bft)
16.04.2015 17:56 16,3 C 15,6 C 54 % 1013,5 hPa 0,0 l/m 2 min 0 min 326 W/m 27,2 km/h (4 Bft)
16.04.2015 17:58 16,2 C 15,0 C 54 % 1013,6 hPa 0,0 l/m 2 min 0 min 206 W/m 27,2 km/h (4 Bft)
16.04.2015 18:00 16,1 C 15,0 C 54 % 1013,5 hPa 0,0 l/m 2 min 0 min 237 W/m 25,1 km/h (4 Bft)
16.04.2015 18:03 16,0 C 15,0 C 54 % 1013,5 hPa 0,0 l/m 2 min 0 min 197 W/m 23,0 km/h (4 Bft)
16.04.2015 18:06 15,9 C 15,0 C 55 % 1013,5 hPa 0,0 l/m 2 min 0 min 243 W/m 31,4 km/h (5 Bft)
16.04.2015 18:08 15,9 C 15,0 C 54 % 1013,6 hPa 0,0 l/m 2 min 0 min 243 W/m 31,4 km/h (5 Bft)
16.04.2015 18:10 15,8 C 15,0 C 54 % 1013,6 hPa 0,0 l/m 2 min 0 min 291 W/m 31,4 km/h (5 Bft)
16.04.2015 18:12 15,7 C 15,0 C 54 % 1013,7 hPa 0,0 l/m 2 min 0 min 305 W/m 27,2 km/h (4 Bft)
16.04.2015 18:14 15,7 C 15,0 C 54 % 1013,6 hPa 0,0 l/m 2 min 0 min 298 W/m 25,1 km/h (4 Bft)
16.04.2015 18:16 15,6 C 15,0 C 54 % 1013,6 hPa 0,0 l/m 2 min 0 min 233 W/m 31,4 km/h (5 Bft)
16.04.2015 18:18 15,6 C 15,0 C 54 % 1013,6 hPa 0,0 l/m 2 min 0 min 250 W/m 23,0 km/h (4 Bft)
16.04.2015 18:20 15,6 C 14,4 C 54 % 1013,6 hPa 0,0 l/m 2 min 0 min 275 W/m 27,2 km/h (4 Bft)
16.04.2015 18:22 15,5 C 14,4 C 54 % 1013,6 hPa 0,0 l/m 2 min 0 min 264 W/m 27,2 km/h (4 Bft)
16.04.2015 18:24 15,4 C 14,4 C 54 % 1013,6 hPa 0,0 l/m 2 min 0 min 224 W/m 25,1 km/h (4 Bft)
16.04.2015 18:26 15,4 C 14,4 C 54 % 1013,6 hPa 0,0 l/m 2 min 0 min 235 W/m 29,3 km/h (5 Bft)
16.04.2015 18:28 15,3 C 14,4 C 54 % 1013,6 hPa 0,0 l/m 2 min 0 min 177 W/m 27,2 km/h (4 Bft)
16.04.2015 18:30 15,3 C 14,4 C 54 % 1013,6 hPa 0,0 l/m 0 min 0 min 129 W/m 23,0 km/h (4 Bft)
16.04.2015 18:32 15,2 C 13,9 C 54 % 1013,6 hPa 0,0 l/m 0 min 0 min 110 W/m 29,3 km/h (5 Bft)
16.04.2015 18:34 15,2 C 13,9 C 54 % 1013,6 hPa 0,0 l/m 0 min 0 min 116 W/m 29,3 km/h (5 Bft)
16.04.2015 18:36 15,1 C 13,9 C 54 % 1013,6 hPa 0,0 l/m 0 min 0 min 131 W/m 29,3 km/h (5 Bft)
16.04.2015 18:38 15,0 C 13,9 C 54 % 1013,6 hPa 0,0 l/m 0 min 0 min 122 W/m 23,0 km/h (4 Bft)
16.04.2015 18:40 14,9 C 13,9 C 55 % 1013,6 hPa 0,0 l/m 0 min 0 min 122 W/m 27,2 km/h (4 Bft)
16.04.2015 18:42 14,9 C 13,9 C 54 % 1013,5 hPa 0,0 l/m 0 min 0 min 116 W/m 18,8 km/h (3 Bft)
16.04.2015 18:44 14,9 C 13,9 C 55 % 1013,6 hPa 0,0 l/m 0 min 0 min 111 W/m 20,9 km/h (4 Bft)
16.04.2015 18:46 14,8 C 13,9 C 54 % 1013,6 hPa 0,0 l/m 0 min 0 min 103 W/m 20,9 km/h (4 Bft)
16.04.2015 18:48 14,8 C 13,9 C 55 % 1013,5 hPa 0,0 l/m 0 min 0 min 96 W/m 20,9 km/h (4 Bft)
16.04.2015 18:50 14,8 C 13,9 C 55 % 1013,6 hPa 0,0 l/m 0 min 0 min 91 W/m 23,0 km/h (4 Bft)
16.04.2015 18:52 14,7 C 13,9 C 54 % 1013,6 hPa 0,0 l/m 0 min 0 min 88 W/m 18,8 km/h (3 Bft)
16.04.2015 18:54 14,7 C 13,9 C 54 % 1013,5 hPa 0,0 l/m 0 min 0 min 85 W/m 20,9 km/h (4 Bft)
16.04.2015 18:56 14,6 C 13,9 C 54 % 1013,5 hPa 0,0 l/m 0 min 0 min 78 W/m 25,1 km/h (4 Bft)
16.04.2015 18:58 14,6 C 13,3 C 54 % 1013,5 hPa 0,0 l/m 0 min 0 min 72 W/m 25,1 km/h (4 Bft)
16.04.2015 19:00 14,5 C 13,3 C 54 % 1013,5 hPa 0,0 l/m 0 min 0 min 67 W/m 25,1 km/h (4 Bft)
16.04.2015 19:02 14,5 C 13,3 C 54 % 1013,4 hPa 0,0 l/m 0 min 0 min 62 W/m 18,8 km/h (3 Bft)
16.04.2015 19:04 14,4 C 13,3 C 54 % 1013,4 hPa 0,0 l/m 0 min 0 min 56 W/m 27,2 km/h (4 Bft)
16.04.2015 19:06 14,3 C 13,3 C 53 % 1013,5 hPa 0,0 l/m 0 min 0 min 53 W/m 33,5 km/h (5 Bft)
16.04.2015 19:30 13,7 C 12,8 C 53 % 1013,4 hPa 0,0 l/m 0 min 0 min 51 W/m 25,1 km/h (4 Bft)
16.04.2015 19:32 13,7 C 12,8 C 53 % 1013,3 hPa 0,0 l/m 0 min 0 min 53 W/m 25,1 km/h (4 Bft)
16.04.2015 19:34 13,7 C 12,8 C 53 % 1013,4 hPa 0,0 l/m 0 min 0 min 53 W/m 20,9 km/h (4 Bft)
16.04.2015 19:36 13,7 C 12,8 C 53 % 1013,4 hPa 0,0 l/m 0 min 0 min 51 W/m 25,1 km/h (4 Bft)
16.04.2015 19:38 13,6 C 12,8 C 53 % 1013,4 hPa 0,0 l/m 0 min 0 min 44 W/m 29,3 km/h (5 Bft)
16.04.2015 19:40 13,6 C 12,2 C 53 % 1013,4 hPa 0,0 l/m 0 min 0 min 40 W/m 25,1 km/h (4 Bft)
16.04.2015 19:42 13,6 C 12,2 C 53 % 1013,4 hPa 0,0 l/m 0 min 0 min 36 W/m 27,2 km/h (4 Bft)
16.04.2015 19:44 13,6 C 12,2 C 53 % 1013,4 hPa 0,0 l/m 0 min 0 min 32 W/m 20,9 km/h (4 Bft)
16.04.2015 19:46 13,5 C 12,2 C 53 % 1013,4 hPa 0,0 l/m 0 min 0 min 30 W/m 23,0 km/h (4 Bft)
16.04.2015 19:48 13,5 C 12,2 C 53 % 1013,4 hPa 0,0 l/m 0 min 0 min 25 W/m 25,1 km/h (4 Bft)
16.04.2015 19:50 13,4 C 12,2 C 52 % 1013,4 hPa 0,0 l/m 0 min 0 min 23 W/m 25,1 km/h (4 Bft)
16.04.2015 19:52 13,4 C 12,2 C 53 % 1013,4 hPa 0,0 l/m 0 min 0 min 20 W/m 20,9 km/h (4 Bft)
16.04.2015 19:54 13,4 C 12,2 C 53 % 1013,4 hPa 0,0 l/m 0 min 0 min 18 W/m 25,1 km/h (4 Bft)
16.04.2015 19:56 13,4 C 12,2 C 52 % 1013,4 hPa 0,0 l/m 0 min 0 min 17 W/m 20,9 km/h (4 Bft)
16.04.2015 19:58 13,3 C 12,2 C 52 % 1013,5 hPa 0,0 l/m 0 min 0 min 16 W/m 25,1 km/h (4 Bft)
16.04.2015 20:00 13,3 C 12,2 C 52 % 1013,4 hPa 0,0 l/m 0 min 0 min 15 W/m 20,9 km/h (4 Bft)
16.04.2015 20:02 13,3 C 12,2 C 52 % 1013,5 hPa 0,0 l/m 0 min 0 min 14 W/m 20,9 km/h (4 Bft)
16.04.2015 20:04 13,2 C 12,2 C 52 % 1013,5 hPa 0,0 l/m 0 min 0 min 12 W/m 18,8 km/h (3 Bft)
16.04.2015 20:06 13,2 C 12,2 C 52 % 1013,4 hPa 0,0 l/m 0 min 0 min 11 W/m 18,8 km/h (3 Bft)
16.04.2015 20:08 13,2 C 11,7 C 52 % 1013,5 hPa 0,0 l/m 0 min 0 min 11 W/m 23,0 km/h (4 Bft)
16.04.2015 20:10 13,2 C 11,7 C 52 % 1013,4 hPa 0,0 l/m 0 min 0 min 11 W/m 18,8 km/h (3 Bft)
16.04.2015 20:12 13,1 C 11,7 C 52 % 1013,5 hPa 0,0 l/m 0 min 0 min 11 W/m 20,9 km/h (4 Bft)
16.04.2015 20:14 13,1 C 11,7 C 53 % 1013,5 hPa 0,0 l/m 0 min 0 min 11 W/m 18,8 km/h (3 Bft)
16.04.2015 20:16 13,1 C 11,7 C 52 % 1013,5 hPa 0,0 l/m 0 min 0 min 9 W/m 18,8 km/h (3 Bft)
16.04.2015 20:18 13,0 C 11,7 C 53 % 1013,5 hPa 0,0 l/m 0 min 0 min 9 W/m 18,8 km/h (3 Bft)
16.04.2015 20:20 13,0 C 11,7 C 53 % 1013,5 hPa 0,0 l/m 0 min 0 min 8 W/m 20,9 km/h (4 Bft)
16.04.2015 20:22 12,9 C 11,7 C 53 % 1013,6 hPa 0,0 l/m 0 min 0 min 7 W/m 18,8 km/h (3 Bft)
16.04.2015 20:24 12,9 C 11,7 C 53 % 1013,6 hPa 0,0 l/m 0 min 0 min 6 W/m 18,8 km/h (3 Bft)
16.04.2015 20:26 12,9 C 11,7 C 53 % 1013,6 hPa 0,0 l/m 0 min 2 min 5 W/m 16,7 km/h (3 Bft)
16.04.2015 20:28 12,9 C 11,7 C 53 % 1013,7 hPa 0,0 l/m 0 min 0 min 5 W/m 14,6 km/h (3 Bft)
16.04.2015 20:30 12,8 C 11,7 C 53 % 1013,6 hPa 0,0 l/m 0 min 0 min 5 W/m 20,9 km/h (4 Bft)
16.04.2015 20:32 12,8 C 11,7 C 53 % 1013,7 hPa 0,0 l/m 0 min 0 min 5 W/m 14,6 km/h (3 Bft)
16.04.2015 20:34 12,8 C 11,7 C 53 % 1013,6 hPa 0,0 l/m 0 min 0 min 0 W/m 18,8 km/h (3 Bft)
16.04.2015 20:36 12,7 C 11,7 C 53 % 1013,6 hPa 0,0 l/m 0 min 0 min 0 W/m 16,7 km/h (3 Bft)
16.04.2015 20:38 12,7 C 11,1 C 54 % 1013,6 hPa 0,0 l/m 0 min 0 min 0 W/m 14,6 km/h (3 Bft)
16.04.2015 20:40 12,7 C 11,1 C 54 % 1013,6 hPa 0,0 l/m 0 min 0 min 0 W/m 16,7 km/h (3 Bft)
16.04.2015 20:42 12,6 C 11,1 C 54 % 1013,6 hPa 0,0 l/m 0 min 0 min 0 W/m 16,7 km/h (3 Bft)
16.04.2015 20:44 12,6 C 11,1 C 54 % 1013,7 hPa 0,0 l/m 0 min 0 min 0 W/m 18,8 km/h (3 Bft)
16.04.2015 20:46 12,6 C 11,1 C 54 % 1013,7 hPa 0,0 l/m 0 min 0 min 0 W/m 16,7 km/h (3 Bft)
16.04.2015 20:48 12,6 C 11,1 C 54 % 1013,7 hPa 0,0 l/m 0 min 0 min 0 W/m 14,6 km/h (3 Bft)
16.04.2015 20:50 12,5 C 11,1 C 55 % 1013,7 hPa 0,0 l/m 0 min 0 min 0 W/m 16,7 km/h (3 Bft)
16.04.2015 20:52 12,4 C 11,1 C 55 % 1013,7 hPa 0,0 l/m 0 min 0 min 0 W/m 18,8 km/h (3 Bft)
16.04.2015 20:54 12,4 C 11,1 C 55 % 1013,7 hPa 0,0 l/m 0 min 0 min 0 W/m 12,6 km/h (3 Bft)
16.04.2015 20:56 12,4 C 11,1 C 55 % 1013,7 hPa 0,0 l/m 0 min 0 min 0 W/m 20,9 km/h (4 Bft)
16.04.2015 20:58 12,3 C 11,1 C 55 % 1013,7 hPa 0,0 l/m 0 min 0 min 0 W/m 14,6 km/h (3 Bft)
16.04.2015 21:00 12,3 C 11,1 C 55 % 1013,9 hPa 0,0 l/m 0 min 0 min 0 W/m 18,8 km/h (3 Bft)
16.04.2015 21:02 12,3 C 10,6 C 55 % 1013,9 hPa 0,0 l/m 0 min 0 min 0 W/m 18,8 km/h (3 Bft)
16.04.2015 21:04 12,2 C 10,6 C 56 % 1013,9 hPa 0,0 l/m 0 min 0 min 0 W/m 14,6 km/h (3 Bft)
16.04.2015 21:06 12,2 C 10,6 C 56 % 1013,9 hPa 0,0 l/m 0 min 0 min 0 W/m 14,6 km/h (3 Bft)
16.04.2015 21:08 12,1 C 10,6 C 56 % 1014,0 hPa 0,0 l/m 0 min 0 min 0 W/m 14,6 km/h (3 Bft)
16.04.2015 21:10 12,1 C 10,6 C 56 % 1014,0 hPa 0,0 l/m 0 min 0 min 0 W/m 12,6 km/h (3 Bft)
16.04.2015 21:12 12,1 C 10,6 C 56 % 1014,0 hPa 0,0 l/m 0 min 0 min 0 W/m 12,6 km/h (3 Bft)
16.04.2015 21:14 12,0 C 10,6 C 56 % 1014,0 hPa 0,0 l/m 0 min 0 min 0 W/m 14,6 km/h (3 Bft)
16.04.2015 21:16 11,9 C 10,6 C 57 % 1013,9 hPa 0,0 l/m 0 min 0 min 0 W/m 14,6 km/h (3 Bft)
16.04.2015 21:18 11,9 C 10,6 C 57 % 1013,9 hPa 0,0 l/m 0 min 0 min 0 W/m 14,6 km/h (3 Bft)
16.04.2015 21:20 11,8 C 10,0 C 57 % 1014,0 hPa 0,0 l/m 0 min 0 min 0 W/m 14,6 km/h (3 Bft)
16.04.2015 21:22 11,8 C 10,0 C 57 % 1014,0 hPa 0,0 l/m 0 min 0 min 0 W/m 12,6 km/h (3 Bft)
16.04.2015 21:24 11,8 C 10,0 C 57 % 1014,1 hPa 0,0 l/m 0 min 0 min 0 W/m 14,6 km/h (3 Bft)
16.04.2015 21:26 11,7 C 10,0 C 57 % 1014,0 hPa 0,0 l/m 0 min 0 min 0 W/m 12,6 km/h (3 Bft)
16.04.2015 21:28 11,7 C 10,0 C 58 % 1014,1 hPa 0,0 l/m 0 min 0 min 0 W/m 18,8 km/h (3 Bft)
16.04.2015 21:30 11,6 C 10,0 C 58 % 1014,0 hPa 0,0 l/m 0 min 0 min 0 W/m 16,7 km/h (3 Bft)
16.04.2015 21:32 11,6 C 10,0 C 58 % 1014,1 hPa 0,0 l/m 0 min 0 min 0 W/m 14,6 km/h (3 Bft)
16.04.2015 21:34 11,5 C 10,0 C 58 % 1014,1 hPa 0,0 l/m 0 min 0 min 0 W/m 14,6 km/h (3 Bft)
16.04.2015 21:36 11,4 C 10,0 C 58 % 1014,0 hPa 0,0 l/m 0 min 0 min 0 W/m 12,6 km/h (3 Bft)
16.04.2015 21:38 11,4 C 10,0 C 58 % 1014,0 hPa 0,0 l/m 0 min 0 min 0 W/m 16,7 km/h (3 Bft)
16.04.2015 21:40 11,4 C 10,0 C 58 % 1013,9 hPa 0,0 l/m 0 min 0 min 0 W/m 14,6 km/h (3 Bft)
16.04.2015 21:42 11,3 C 9,4 C 59 % 1014,0 hPa 0,0 l/m 0 min 0 min 0 W/m 14,6 km/h (3 Bft)
16.04.2015 21:44 11,3 C 9,4 C 59 % 1014,0 hPa 0,0 l/m 0 min 0 min 0 W/m 18,8 km/h (3 Bft)
16.04.2015 21:46 11,2 C 9,4 C 58 % 1014,0 hPa 0,0 l/m 0 min 0 min 0 W/m 16,7 km/h (3 Bft)
16.04.2015 21:48 11,2 C 9,4 C 59 % 1014,0 hPa 0,0 l/m 0 min 0 min 0 W/m 14,6 km/h (3 Bft)
16.04.2015 21:50 11,2 C 9,4 C 59 % 1013,9 hPa 0,0 l/m 0 min 0 min 0 W/m 16,7 km/h (3 Bft)
16.04.2015 21:52 11,1 C 9,4 C 59 % 1014,1 hPa 0,0 l/m 0 min 0 min 0 W/m 20,9 km/h (4 Bft)
16.04.2015 21:54 11,1 C 9,4 C 59 % 1014,1 hPa 0,0 l/m 0 min 0 min 0 W/m 14,6 km/h (3 Bft)
16.04.2015 21:56 11,1 C 9,4 C 59 % 1014,2 hPa 0,0 l/m 0 min 0 min 0 W/m 18,8 km/h (3 Bft)
16.04.2015 21:58 11,1 C 9,4 C 59 % 1014,2 hPa 0,0 l/m 0 min 0 min 0 W/m 16,7 km/h (3 Bft)
16.04.2015 22:00 11,0 C 9,4 C 60 % 1014,2 hPa 0,0 l/m 0 min 0 min 0 W/m 16,7 km/h (3 Bft)
16.04.2015 22:02 11,0 C 9,4 C 60 % 1014,2 hPa 0,0 l/m 0 min 0 min 0 W/m 18,8 km/h (3 Bft)
16.04.2015 22:04 10,9 C 9,4 C 60 % 1014,2 hPa 0,0 l/m 0 min 0 min 0 W/m 18,8 km/h (3 Bft)
16.04.2015 22:06 10,9 C 9,4 C 60 % 1014,2 hPa 0,0 l/m 0 min 0 min 0 W/m 16,7 km/h (3 Bft)
16.04.2015 22:08 10,9 C 9,4 C 60 % 1014,3 hPa 0,0 l/m 0 min 0 min 0 W/m 20,9 km/h (4 Bft)
16.04.2015 22:10 10,8 C 9,4 C 60 % 1014,3 hPa 0,0 l/m 0 min 0 min 0 W/m 18,8 km/h (3 Bft)
16.04.2015 22:12 10,8 C 9,4 C 61 % 1014,4 hPa 0,0 l/m 0 min 0 min 0 W/m 18,8 km/h (3 Bft)
16.04.2015 22:14 10,8 C 9,4 C 61 % 1014,4 hPa 0,0 l/m 0 min 0 min 0 W/m 16,7 km/h (3 Bft)
16.04.2015 22:16 10,7 C 9,4 C 61 % 1014,4 hPa 0,0 l/m 0 min 0 min 0 W/m 18,8 km/h (3 Bft)
16.04.2015 22:18 10,7 C 9,4 C 61 % 1014,5 hPa 0,0 l/m 0 min 0 min 0 W/m 23,0 km/h (4 Bft)
16.04.2015 22:20 10,7 C 9,4 C 61 % 1014,4 hPa 0,0 l/m 0 min 0 min 0 W/m 23,0 km/h (4 Bft)
16.04.2015 22:22 10,7 C 9,4 C 61 % 1014,4 hPa 0,0 l/m 0 min 0 min 0 W/m 27,2 km/h (4 Bft)
16.04.2015 22:24 10,6 C 9,4 C 62 % 1014,4 hPa 0,0 l/m 0 min 0 min 0 W/m 20,9 km/h (4 Bft)
16.04.2015 22:26 10,6 C 9,4 C 62 % 1014,5 hPa 0,0 l/m 0 min 0 min 0 W/m 18,8 km/h (3 Bft)
16.04.2015 22:28 10,6 C 9,4 C 62 % 1014,6 hPa 0,0 l/m 0 min 0 min 0 W/m 16,7 km/h (3 Bft)
16.04.2015 22:30 10,6 C 8,9 C 62 % 1014,7 hPa 0,0 l/m 0 min 0 min 0 W/m 10,5 km/h (2 Bft)
16.04.2015 22:32 10,6 C 8,9 C 62 % 1014,8 hPa 0,0 l/m 0 min 0 min 0 W/m 12,6 km/h (3 Bft)
16.04.2015 22:34 10,5 C 8,9 C 62 % 1014,8 hPa 0,0 l/m 0 min 0 min 0 W/m 16,7 km/h (3 Bft)
16.04.2015 22:36 10,5 C 8,9 C 63 % 1014,7 hPa 0,0 l/m 0 min 0 min 0 W/m 14,6 km/h (3 Bft)
16.04.2015 22:38 10,4 C 8,9 C 63 % 1014,8 hPa 0,0 l/m 0 min 0 min 0 W/m 20,9 km/h (4 Bft)
16.04.2015 22:40 10,4 C 8,9 C 63 % 1014,8 hPa 0,0 l/m 0 min 0 min 0 W/m 20,9 km/h (4 Bft)
16.04.2015 22:42 10,4 C 8,9 C 63 % 1014,8 hPa 0,0 l/m 0 min 0 min 0 W/m 18,8 km/h (3 Bft)
16.04.2015 22:44 10,4 C 8,9 C 63 % 1014,7 hPa 0,0 l/m 0 min 0 min 0 W/m 14,6 km/h (3 Bft)
16.04.2015 22:46 10,3 C 8,9 C 63 % 1014,6 hPa 0,0 l/m 0 min 0 min 0 W/m 16,7 km/h (3 Bft)
16.04.2015 22:48 10,3 C 8,9 C 63 % 1014,6 hPa 0,0 l/m 0 min 0 min 0 W/m 18,8 km/h (3 Bft)
16.04.2015 22:50 10,3 C 8,3 C 63 % 1014,6 hPa 0,0 l/m 0 min 0 min 0 W/m 10,5 km/h (2 Bft)
16.04.2015 22:52 10,2 C 8,9 C 63 % 1014,7 hPa 0,0 l/m 0 min 0 min 0 W/m 10,5 km/h (2 Bft)
16.04.2015 22:54 10,2 C 8,9 C 64 % 1014,6 hPa 0,0 l/m 0 min 0 min 0 W/m 14,6 km/h (3 Bft)
16.04.2015 22:56 10,2 C 8,3 C 64 % 1014,7 hPa 0,0 l/m 0 min 0 min 0 W/m 10,5 km/h (2 Bft)
16.04.2015 22:58 10,2 C 8,3 C 64 % 1014,6 hPa 0,0 l/m 0 min 0 min 0 W/m 16,7 km/h (3 Bft)
16.04.2015 23:00 10,1 C 8,3 C 64 % 1014,6 hPa 0,0 l/m 0 min 0 min 0 W/m 12,6 km/h (3 Bft)
16.04.2015 23:02 10,1 C 8,3 C 64 % 1014,6 hPa 0,0 l/m 0 min 0 min 0 W/m 10,5 km/h (2 Bft)
16.04.2015 23:04 10,1 C 8,3 C 64 % 1014,6 hPa 0,0 l/m 0 min 0 min 0 W/m 10,5 km/h (2 Bft)
16.04.2015 23:06 10,1 C 8,3 C 64 % 1014,7 hPa 0,0 l/m 0 min 0 min 0 W/m 14,6 km/h (3 Bft)
16.04.2015 23:08 10,0 C 8,3 C 64 % 1014,8 hPa 0,0 l/m 0 min 0 min 0 W/m 14,6 km/h (3 Bft)
16.04.2015 23:10 10,0 C 8,3 C 64 % 1014,7 hPa 0,0 l/m 0 min 0 min 0 W/m 14,6 km/h (3 Bft)
16.04.2015 23:12 9,9 C 8,3 C 64 % 1014,7 hPa 0,0 l/m 0 min 0 min 0 W/m 8,4 km/h (2 Bft)
16.04.2015 23:14 9,9 C 8,3 C 64 % 1014,6 hPa 0,0 l/m 0 min 0 min 0 W/m 16,7 km/h (3 Bft)
16.04.2015 23:16 9,9 C 8,3 C 64 % 1014,6 hPa 0,0 l/m 0 min 0 min 0 W/m 16,7 km/h (3 Bft)
16.04.2015 23:18 9,9 C 8,3 C 64 % 1014,6 hPa 0,0 l/m 0 min 0 min 0 W/m 10,5 km/h (2 Bft)
16.04.2015 23:20 9,8 C 8,3 C 64 % 1014,6 hPa 0,0 l/m 0 min 0 min 0 W/m 14,6 km/h (3 Bft)
16.04.2015 23:22 9,8 C 8,3 C 64 % 1014,5 hPa 0,0 l/m 0 min 0 min 0 W/m 10,5 km/h (2 Bft)
16.04.2015 23:24 9,8 C 8,3 C 64 % 1014,6 hPa 0,0 l/m 0 min 0 min 0 W/m 10,5 km/h (2 Bft)
16.04.2015 23:26 9,8 C 7,8 C 64 % 1014,6 hPa 0,0 l/m 0 min 0 min 0 W/m 10,5 km/h (2 Bft)
16.04.2015 23:28 9,8 C 8,3 C 64 % 1014,6 hPa 0,0 l/m 0 min 0 min 0 W/m 10,5 km/h (2 Bft)
16.04.2015 23:30 9,8 C 7,8 C 64 % 1014,6 hPa 0,0 l/m 0 min 0 min 0 W/m 10,5 km/h (2 Bft)
16.04.2015 23:32 9,7 C 7,8 C 64 % 1014,5 hPa 0,0 l/m 0 min 0 min 0 W/m 14,6 km/h (3 Bft)
16.04.2015 23:34 9,7 C 7,8 C 64 % 1014,6 hPa 0,0 l/m 0 min 0 min 0 W/m 10,5 km/h (2 Bft)
16.04.2015 23:36 9,7 C 7,8 C 64 % 1014,6 hPa 0,0 l/m 0 min 0 min 0 W/m 10,5 km/h (2 Bft)
16.04.2015 23:38 9,7 C 7,8 C 64 % 1014,6 hPa 0,0 l/m 0 min 0 min 0 W/m 12,6 km/h (3 Bft)
16.04.2015 23:40 9,7 C 7,8 C 64 % 1014,7 hPa 0,0 l/m 0 min 0 min 0 W/m 12,6 km/h (3 Bft)
16.04.2015 23:42 9,7 C 7,8 C 64 % 1014,7 hPa 0,0 l/m 0 min 0 min 0 W/m 12,6 km/h (3 Bft)
16.04.2015 23:44 9,7 C 7,8 C 64 % 1014,7 hPa 0,0 l/m 0 min 0 min 0 W/m 12,6 km/h (3 Bft)
16.04.2015 23:46 9,6 C 7,8 C 64 % 1014,7 hPa 0,0 l/m 0 min 0 min 0 W/m 14,6 km/h (3 Bft)
16.04.2015 23:48 9,6 C 7,8 C 64 % 1014,8 hPa 0,0 l/m 0 min 0 min 0 W/m 8,4 km/h (2 Bft)
16.04.2015 23:50 9,6 C 7,8 C 64 % 1014,8 hPa 0,0 l/m 0 min 0 min 0 W/m 12,6 km/h (3 Bft)
16.04.2015 23:52 9,6 C 7,8 C 64 % 1014,8 hPa 0,0 l/m 0 min 0 min 0 W/m 18,8 km/h (3 Bft)
16.04.2015 23:54 9,6 C 7,8 C 64 % 1014,9 hPa 0,0 l/m 0 min 0 min 0 W/m 12,6 km/h (3 Bft)
16.04.2015 23:56 9,6 C 7,8 C 64 % 1014,9 hPa 0,0 l/m 0 min 0 min 0 W/m 10,5 km/h (2 Bft)
16.04.2015 23:58 9,6 C 7,8 C 64 % 1014,8 hPa 0,0 l/m 0 min 0 min 0 W/m 12,6 km/h (3 Bft)
_ Min-Zeit 06:54 06:18 19:50 19:32 - - - - 01:18
Minimum _ 6,7 C 5,6 C 52 % 1013,3 hPa - - - - 4,2 km/h (1 Bft)
_ Max-Zeit 14:48 14:46 07:20 11:28 00:00 07:24 20:26 13:28 19:06
Maximum _ 17,4 C 23,3 C 95 % 1016,2 hPa 0,0 l/m 2 min 2 min 758 W/m 33,5 km/h
N (5 Bft)
Durchschnitt _ 11,9 C 11,5 C 73 % 1014,7 hPa #0,0 l/m #9:58 h #2 min. 392 W/m 15,6 km/h (3 Bft)
© 2015 W. Hausmann